Observation data for Lake Alan Henry on 01/20/2019      Previous  Date  Next       Current Mesonet Observations  Soil Data  Daily Summary Page  Observations in Plain Language
KAHS 200600Z 09003KT 01/M04 A3032 RMK A01 T00051044  RH  070%=      5-min Rain = 0
KAHS 200601Z 09004KT 00/M04 A3032 RMK A01 T00041044  RH  070%=      5-min Rain = 0
KAHS 200602Z 10003KT 00/M04 A3032 RMK A01 T00041043  RH  070%=      5-min Rain = 0
KAHS 200603Z 10004KT 00/M04 A3032 RMK A01 T00041044  RH  070%=      5-min Rain = 0
KAHS 200604Z 10004KT 00/M04 A3032 RMK A01 T00041044  RH  070%=      5-min Rain = 0
KAHS 200605Z 09003KT 00/M04 A3032 RMK A01 T00031044  RH  070%=      5-min Rain = 0
KAHS 200606Z 10003KT 00/M04 A3032 RMK A01 T00031044  RH  071%=      5-min Rain = 0
KAHS 200607Z 10003KT 00/M04 A3033 RMK A01 T00031044  RH  071%=      5-min Rain = 0
KAHS 200608Z 10003KT 00/M04 A3033 RMK A01 T00041044  RH  070%=      5-min Rain = 0
KAHS 200609Z 10003KT 00/M04 A3033 RMK A01 T00041044  RH  070%=      5-min Rain = 0
KAHS 200610Z 11004KT 01/M04 A3033 RMK A01 T00051044  RH  070%=      5-min Rain = 0
KAHS 200611Z 10004KT 01/M04 A3033 RMK A01 T00061044  RH  069%=      5-min Rain = 0
KAHS 200612Z 10004KT 01/M05 A3033 RMK A01 T00061045  RH  069%=      5-min Rain = 0
KAHS 200613Z 10004KT 01/M05 A3033 RMK A01 T00051045  RH  069%=      5-min Rain = 0
KAHS 200614Z 10004KT 01/M05 A3033 RMK A01 T00051045  RH  069%=      5-min Rain = 0
KAHS 200615Z 10004KT 00/M05 A3033 RMK A01 T00041045  RH  070%=      5-min Rain = 0
KAHS 200616Z 11005KT 00/M05 A3033 RMK A01 T00041045  RH  070%=      5-min Rain = 0
KAHS 200617Z 11004KT 00/M05 A3033 RMK A01 T00041045  RH  070%=      5-min Rain = 0
KAHS 200618Z 11004KT 00/M05 A3033 RMK A01 T00031046  RH  070%=      5-min Rain = 0
KAHS 200619Z 10004KT 00/M05 A3033 RMK A01 T00021046  RH  070%=      5-min Rain = 0
KAHS 200620Z 10005KT 00/M05 A3033 RMK A01 T00011046  RH  070%=      5-min Rain = 0
KAHS 200621Z 10004KT 00/M05 A3033 RMK A01 T00011046  RH  071%=      5-min Rain = 0
KAHS 200622Z 11004KT 00/05 A3033 RMK A01 T00000-46  RH  071%=      5-min Rain = 0
KAHS 200623Z 10003KT 00/05 A3033 RMK A01 T00000-46  RH  071%=      5-min Rain = 0
KAHS 200624Z 11004KT 00/05 A3034 RMK A01 T00-00-46  RH  071%=      5-min Rain = 0
KAHS 200625Z 11003KT 00/05 A3034 RMK A01 T00-00-46  RH  071%=      5-min Rain = 0
KAHS 200626Z 11004KT 00/05 A3034 RMK A01 T00-00-46  RH  071%=      5-min Rain = 0
KAHS 200627Z 11003KT 00/05 A3034 RMK A01 T00-00-46  RH  071%=      5-min Rain = 0
KAHS 200628Z 11004KT 00/05 A3033 RMK A01 T00-00-46  RH  071%=      5-min Rain = 0
KAHS 200629Z 11003KT 00/05 A3033 RMK A01 T00-00-46  RH  071%=      5-min Rain = 0
KAHS 200630Z 11003KT M00/M05 A3033 RMK A01 T10011046  RH  071%=      5-min Rain = 0
KAHS 200631Z 12003KT M00/M05 A3033 RMK A01 T10011046  RH  071%=      5-min Rain = 0
KAHS 200632Z 12003KT M00/M05 A3033 RMK A01 T10021047  RH  072%=      5-min Rain = 0
KAHS 200633Z 13003KT M00/M05 A3033 RMK A01 T10021047  RH  072%=      5-min Rain = 0
KAHS 200634Z 13003KT M00/M05 A3034 RMK A01 T10031047  RH  072%=      5-min Rain = 0
KAHS 200635Z 14004KT M00/M05 A3034 RMK A01 T10031047  RH  072%=      5-min Rain = 0
KAHS 200636Z 15004KT M00/M05 A3034 RMK A01 T10031047  RH  072%=      5-min Rain = 0
KAHS 200637Z 15004KT M00/M05 A3034 RMK A01 T10041048  RH  072%=      5-min Rain = 0
KAHS 200638Z 15004KT M00/M05 A3033 RMK A01 T10041048  RH  073%=      5-min Rain = 0
KAHS 200639Z 15005KT M01/M05 A3033 RMK A01 T10051048  RH  073%=      5-min Rain = 0
KAHS 200640Z 15005KT M01/M05 A3033 RMK A01 T10051048  RH  072%=      5-min Rain = 0
KAHS 200641Z 15005KT M01/M05 A3033 RMK A01 T10051048  RH  072%=      5-min Rain = 0
KAHS 200642Z 15005KT M01/M05 A3033 RMK A01 T10051048  RH  072%=      5-min Rain = 0
KAHS 200643Z 14005KT M01/M05 A3034 RMK A01 T10051048  RH  072%=      5-min Rain = 0
KAHS 200644Z 15005KT M01/M05 A3034 RMK A01 T10051048  RH  072%=      5-min Rain = 0
KAHS 200645Z 14005KT M00/M05 A3033 RMK A01 T10041048  RH  072%=      5-min Rain = 0
KAHS 200646Z 14005KT M00/M05 A3033 RMK A01 T10041049  RH  072%=      5-min Rain = 0
KAHS 200647Z 14004KT M00/M05 A3033 RMK A01 T10041049  RH  072%=      5-min Rain = 0
KAHS 200648Z 14004KT M00/M05 A3034 RMK A01 T10041049  RH  071%=      5-min Rain = 0
KAHS 200649Z 14005KT M00/M05 A3034 RMK A01 T10041050  RH  071%=      5-min Rain = 0
KAHS 200650Z 14005KT M00/M05 A3034 RMK A01 T10031049  RH  071%=      5-min Rain = 0
KAHS 200651Z 14004KT M00/M05 A3034 RMK A01 T10021050  RH  070%=      5-min Rain = 0
KAHS 200652Z 14005KT M00/M05 A3034 RMK A01 T10031050  RH  070%=      5-min Rain = 0
KAHS 200653Z 14005KT M00/M05 A3034 RMK A01 T10031051  RH  070%=      5-min Rain = 0
KAHS 200654Z 14005KT M00/M05 A3034 RMK A01 T10041051  RH  071%=      5-min Rain = 0
KAHS 200655Z 13004KT M00/M05 A3034 RMK A01 T10041051  RH  071%=      5-min Rain = 0
KAHS 200656Z 13004KT M00/M05 A3034 RMK A01 T10041051  RH  071%=      5-min Rain = 0
KAHS 200657Z 14005KT M00/M05 A3034 RMK A01 T10041051  RH  070%=      5-min Rain = 0
KAHS 200658Z 14005KT M00/M05 A3034 RMK A01 T10041051  RH  070%=      5-min Rain = 0
KAHS 200659Z 14006KT M00/M05 A3034 RMK A01 T10031052  RH  070%=      5-min Rain = 0
KAHS 200700Z 14006KT M00/M05 A3034 RMK A01 T10041052  RH  070%=      5-min Rain = 0
KAHS 200701Z 15006KT M00/M05 A3034 RMK A01 T10041052  RH  070%=      5-min Rain = 0
KAHS 200702Z 15006KT M00/M05 A3034 RMK A01 T10041052  RH  070%=      5-min Rain = 0
KAHS 200703Z 14006KT M00/M05 A3033 RMK A01 T10041052  RH  070%=      5-min Rain = 0
KAHS 200704Z 14005KT M00/M05 A3033 RMK A01 T10041052  RH  070%=      5-min Rain = 0
KAHS 200705Z 14005KT M00/M05 A3033 RMK A01 T10031052  RH  070%=      5-min Rain = 0
KAHS 200706Z 14005KT M00/M05 A3033 RMK A01 T10031052  RH  069%=      5-min Rain = 0
KAHS 200707Z 14004KT M00/M05 A3033 RMK A01 T10031053  RH  069%=      5-min Rain = 0
KAHS 200708Z 15005KT M00/M05 A3033 RMK A01 T10031053  RH  069%=      5-min Rain = 0
KAHS 200709Z 14005KT M00/M05 A3034 RMK A01 T10021053  RH  069%=      5-min Rain = 0
KAHS 200710Z 14005KT M00/M05 A3034 RMK A01 T10021053  RH  069%=      5-min Rain = 0
KAHS 200711Z 13005KT M00/M05 A3034 RMK A01 T10031053  RH  069%=      5-min Rain = 0
KAHS 200712Z 12005KT M00/M05 A3034 RMK A01 T10031053  RH  069%=      5-min Rain = 0
KAHS 200713Z 12006KT M00/M05 A3033 RMK A01 T10041053  RH  069%=      5-min Rain = 0
KAHS 200714Z 13006KT M01/M05 A3033 RMK A01 T10051053  RH  070%=      5-min Rain = 0
KAHS 200715Z 13006KT M01/M05 A3033 RMK A01 T10051053  RH  070%=      5-min Rain = 0
KAHS 200716Z 14005KT M01/M05 A3033 RMK A01 T10051053  RH  070%=      5-min Rain = 0
KAHS 200717Z 14005KT M01/M05 A3033 RMK A01 T10051053  RH  070%=      5-min Rain = 0
KAHS 200718Z 14005KT M01/M05 A3033 RMK A01 T10061053  RH  070%=      5-min Rain = 0
KAHS 200719Z 15004KT M01/M05 A3033 RMK A01 T10061053  RH  070%=      5-min Rain = 0
KAHS 200720Z 15004KT M01/M05 A3033 RMK A01 T10061053  RH  070%=      5-min Rain = 0
KAHS 200721Z 15004KT M01/M05 A3033 RMK A01 T10061053  RH  070%=      5-min Rain = 0
KAHS 200722Z 16004KT M01/M05 A3033 RMK A01 T10061053  RH  071%=      5-min Rain = 0
KAHS 200723Z 16004KT M01/M05 A3033 RMK A01 T10061053  RH  071%=      5-min Rain = 0
KAHS 200724Z 15005KT M01/M05 A3033 RMK A01 T10061053  RH  071%=      5-min Rain = 0
KAHS 200725Z 15005KT M01/M05 A3033 RMK A01 T10051052  RH  070%=      5-min Rain = 0
KAHS 200726Z 15005KT M00/M05 A3033 RMK A01 T10041053  RH  069%=      5-min Rain = 0
KAHS 200727Z 15005KT M00/M05 A3033 RMK A01 T10031054  RH  069%=      5-min Rain = 0
KAHS 200728Z 15005KT M00/M05 A3033 RMK A01 T10031054  RH  069%=      5-min Rain = 0
KAHS 200729Z 15005KT M00/M05 A3033 RMK A01 T10041054  RH  069%=      5-min Rain = 0
KAHS 200730Z 16005KT M00/M05 A3033 RMK A01 T10041054  RH  069%=      5-min Rain = 0
KAHS 200731Z 16006KT M00/M05 A3033 RMK A01 T10041054  RH  069%=      5-min Rain = 0
KAHS 200732Z 16005KT M00/M05 A3033 RMK A01 T10041054  RH  069%=      5-min Rain = 0
KAHS 200733Z 16004KT M00/M05 A3033 RMK A01 T10031053  RH  069%=      5-min Rain = 0
KAHS 200734Z 16004KT M00/M05 A3033 RMK A01 T10031053  RH  069%=      5-min Rain = 0
KAHS 200735Z 16005KT M00/M05 A3033 RMK A01 T10031054  RH  068%=      5-min Rain = 0
KAHS 200736Z 16005KT M00/M06 A3033 RMK A01 T10031056  RH  067%=      5-min Rain = 0
KAHS 200737Z 16004KT M00/M06 A3033 RMK A01 T10021057  RH  067%=      5-min Rain = 0
KAHS 200738Z 16004KT M00/M06 A3033 RMK A01 T10031058  RH  067%=      5-min Rain = 0
KAHS 200739Z 16005KT M00/M06 A3032 RMK A01 T10031057  RH  067%=      5-min Rain = 0
KAHS 200740Z 16005KT M00/M06 A3032 RMK A01 T10031057  RH  067%=      5-min Rain = 0
KAHS 200741Z 16004KT M00/M06 A3032 RMK A01 T10031057  RH  067%=      5-min Rain = 0
KAHS 200742Z 16004KT M00/M06 A3032 RMK A01 T10041057  RH  068%=      5-min Rain = 0
KAHS 200743Z 15004KT M01/M06 A3032 RMK A01 T10051057  RH  068%=      5-min Rain = 0
KAHS 200744Z 16003KT M01/M06 A3032 RMK A01 T10051056  RH  068%=      5-min Rain = 0
KAHS 200745Z 15004KT M01/M06 A3033 RMK A01 T10051056  RH  068%=      5-min Rain = 0
KAHS 200746Z 14003KT M01/M06 A3033 RMK A01 T10051057  RH  068%=      5-min Rain = 0
KAHS 200747Z 14003KT M01/M06 A3033 RMK A01 T10051057  RH  068%=      5-min Rain = 0
KAHS 200748Z 13003KT M01/M06 A3033 RMK A01 T10051056  RH  068%=      5-min Rain = 0
KAHS 200749Z 14003KT M01/M06 A3032 RMK A01 T10051056  RH  068%=      5-min Rain = 0
KAHS 200750Z 14005KT M01/M06 A3032 RMK A01 T10051057  RH  068%=      5-min Rain = 0
KAHS 200751Z 14005KT M01/M06 A3032 RMK A01 T10051056  RH  068%=      5-min Rain = 0
KAHS 200752Z 13005KT M01/M06 A3032 RMK A01 T10051056  RH  068%=      5-min Rain = 0
KAHS 200753Z 13005KT M01/M06 A3032 RMK A01 T10061057  RH  069%=      5-min Rain = 0
KAHS 200754Z 13005KT M01/M06 A3032 RMK A01 T10061057  RH  069%=      5-min Rain = 0
KAHS 200755Z 13006KT M01/M06 A3032 RMK A01 T10061058  RH  068%=      5-min Rain = 0
KAHS 200756Z 13005KT M01/M06 A3032 RMK A01 T10051059  RH  067%=      5-min Rain = 0
KAHS 200757Z 13006KT M01/M06 A3032 RMK A01 T10061060  RH  067%=      5-min Rain = 0
KAHS 200758Z 13005KT M01/M06 A3032 RMK A01 T10071061  RH  067%=      5-min Rain = 0
KAHS 200759Z 13005KT M01/M06 A3032 RMK A01 T10071061  RH  067%=      5-min Rain = 0
KAHS 200800Z 13006KT M01/M06 A3032 RMK A01 T10071062  RH  066%=      5-min Rain = 0
KAHS 200801Z 13006KT M01/M06 A3032 RMK A01 T10071063  RH  066%=      5-min Rain = 0
KAHS 200802Z 13005KT M01/M06 A3032 RMK A01 T10071063  RH  066%=      5-min Rain = 0
KAHS 200803Z 12006KT M01/M06 A3032 RMK A01 T10071064  RH  066%=      5-min Rain = 0
KAHS 200804Z 12006KT M01/M06 A3032 RMK A01 T10071064  RH  065%=      5-min Rain = 0
KAHS 200805Z 12006KT M01/M07 A3032 RMK A01 T10071065  RH  065%=      5-min Rain = 0
KAHS 200806Z 13006KT M01/M07 A3032 RMK A01 T10071065  RH  065%=      5-min Rain = 0
KAHS 200807Z 13006KT M01/M07 A3032 RMK A01 T10081066  RH  065%=      5-min Rain = 0
KAHS 200808Z 13005KT M01/M07 A3032 RMK A01 T10081066  RH  065%=      5-min Rain = 0
KAHS 200809Z 14005KT M01/M07 A3032 RMK A01 T10091066  RH  065%=      5-min Rain = 0
KAHS 200810Z 14005KT M01/M07 A3032 RMK A01 T10091066  RH  065%=      5-min Rain = 0
KAHS 200811Z 14005KT M01/M07 A3032 RMK A01 T10101066  RH  066%=      5-min Rain = 0
KAHS 200812Z 14005KT M01/M07 A3032 RMK A01 T10111067  RH  066%=      5-min Rain = 0
KAHS 200813Z 13004KT M01/M07 A3032 RMK A01 T10111067  RH  066%=      5-min Rain = 0
KAHS 200814Z 13004KT M01/M07 A3032 RMK A01 T10111067  RH  066%=      5-min Rain = 0
KAHS 200815Z 14004KT M01/M07 A3032 RMK A01 T10111067  RH  066%=      5-min Rain = 0
KAHS 200816Z 14004KT M01/M07 A3032 RMK A01 T10111067  RH  066%=      5-min Rain = 0
KAHS 200817Z 15004KT M01/M07 A3032 RMK A01 T10111067  RH  066%=      5-min Rain = 0
KAHS 200818Z 16004KT M01/M07 A3032 RMK A01 T10111067  RH  066%=      5-min Rain = 0
KAHS 200819Z 16004KT M01/M07 A3032 RMK A01 T10111067  RH  066%=      5-min Rain = 0
KAHS 200820Z 15004KT M01/M07 A3032 RMK A01 T10121067  RH  066%=      5-min Rain = 0
KAHS 200821Z 15004KT M01/M07 A3032 RMK A01 T10121067  RH  066%=      5-min Rain = 0
KAHS 200822Z 15004KT M01/M07 A3032 RMK A01 T10121068  RH  066%=      5-min Rain = 0
KAHS 200823Z 15004KT M01/M07 A3033 RMK A01 T10111067  RH  066%=      5-min Rain = 0
KAHS 200824Z 15004KT M01/M07 A3033 RMK A01 T10111067  RH  066%=      5-min Rain = 0
KAHS 200825Z 15004KT M01/M07 A3032 RMK A01 T10121068  RH  066%=      5-min Rain = 0
KAHS 200826Z 15005KT M01/M07 A3032 RMK A01 T10121068  RH  066%=      5-min Rain = 0
KAHS 200827Z 15004KT M01/M07 A3032 RMK A01 T10121068  RH  066%=      5-min Rain = 0
KAHS 200828Z 14004KT M01/M07 A3032 RMK A01 T10121068  RH  066%=      5-min Rain = 0
KAHS 200829Z 15004KT M01/M07 A3032 RMK A01 T10121068  RH  066%=      5-min Rain = 0
KAHS 200830Z 15004KT M01/M07 A3032 RMK A01 T10121068  RH  066%=      5-min Rain = 0
KAHS 200831Z 14004KT M01/M07 A3032 RMK A01 T10131068  RH  066%=      5-min Rain = 0
KAHS 200832Z 13004KT M01/M07 A3032 RMK A01 T10121068  RH  066%=      5-min Rain = 0
KAHS 200833Z 13004KT M01/M07 A3032 RMK A01 T10121068  RH  066%=      5-min Rain = 0
KAHS 200834Z 13004KT M01/M07 A3032 RMK A01 T10121068  RH  066%=      5-min Rain = 0
KAHS 200835Z 12004KT M01/M07 A3032 RMK A01 T10111068  RH  066%=      5-min Rain = 0
KAHS 200836Z 12005KT M01/M07 A3032 RMK A01 T10111067  RH  066%=      5-min Rain = 0
KAHS 200837Z 13005KT M01/M07 A3032 RMK A01 T10111067  RH  066%=      5-min Rain = 0
KAHS 200838Z 13005KT M01/M07 A3032 RMK A01 T10111067  RH  066%=      5-min Rain = 0
KAHS 200839Z 14004KT M01/M07 A3032 RMK A01 T10111067  RH  066%=      5-min Rain = 0
KAHS 200840Z 14004KT M01/M07 A3032 RMK A01 T10111067  RH  066%=      5-min Rain = 0
KAHS 200841Z 15004KT M01/M07 A3032 RMK A01 T10111067  RH  066%=      5-min Rain = 0
KAHS 200842Z 15003KT M01/M07 A3032 RMK A01 T10121067  RH  066%=      5-min Rain = 0
KAHS 200843Z 15003KT M01/M07 A3032 RMK A01 T10121067  RH  066%=      5-min Rain = 0
KAHS 200844Z 15003KT M01/M07 A3032 RMK A01 T10131066  RH  067%=      5-min Rain = 0
KAHS 200845Z 16004KT M01/M07 A3032 RMK A01 T10131067  RH  067%=      5-min Rain = 0
KAHS 200846Z 16004KT M01/M07 A3032 RMK A01 T10131066  RH  067%=      5-min Rain = 0
KAHS 200847Z 17003KT M01/M07 A3032 RMK A01 T10131066  RH  067%=      5-min Rain = 0
KAHS 200848Z 18003KT M01/M07 A3032 RMK A01 T10131066  RH  067%=      5-min Rain = 0
KAHS 200849Z 17003KT M01/M07 A3032 RMK A01 T10141066  RH  068%=      5-min Rain = 0
KAHS 200850Z 17003KT M01/M07 A3032 RMK A01 T10141066  RH  068%=      5-min Rain = 0
KAHS 200851Z 16003KT M01/M07 A3032 RMK A01 T10141065  RH  068%=      5-min Rain = 0
KAHS 200852Z 16003KT M01/M07 A3032 RMK A01 T10141065  RH  068%=      5-min Rain = 0
KAHS 200853Z 15003KT M01/M06 A3032 RMK A01 T10141064  RH  068%=      5-min Rain = 0
KAHS 200854Z 15002KT M01/M06 A3032 RMK A01 T10141064  RH  069%=      5-min Rain = 0
KAHS 200855Z 15002KT M01/M06 A3032 RMK A01 T10141064  RH  069%=      5-min Rain = 0
KAHS 200856Z 15002KT M01/M06 A3032 RMK A01 T10141064  RH  068%=      5-min Rain = 0
KAHS 200857Z 15002KT M01/M07 A3032 RMK A01 T10141065  RH  069%=      5-min Rain = 0
KAHS 200858Z 15004KT M02/M06 A3032 RMK A01 T10151064  RH  069%=      5-min Rain = 0
KAHS 200859Z 13002KT M02/M07 A3032 RMK A01 T10161065  RH  069%=      5-min Rain = 0
KAHS 200900Z 15003KT M02/M07 A3032 RMK A01 T10171065  RH  070%=      5-min Rain = 0
KAHS 200901Z 17003KT M02/M07 A3032 RMK A01 T10161065  RH  070%=      5-min Rain = 0
KAHS 200902Z 15002KT M02/M06 A3032 RMK A01 T10161064  RH  069%=      5-min Rain = 0
KAHS 200903Z 14002KT M02/M06 A3032 RMK A01 T10151064  RH  070%=      5-min Rain = 0
KAHS 200904Z 14002KT M02/M06 A3032 RMK A01 T10151064  RH  069%=      5-min Rain = 0
KAHS 200905Z 14003KT M01/M06 A3032 RMK A01 T10141064  RH  069%=      5-min Rain = 0
KAHS 200906Z 13002KT M01/M07 A3032 RMK A01 T10131065  RH  068%=      5-min Rain = 0
KAHS 200907Z 12002KT M01/M07 A3032 RMK A01 T10131065  RH  068%=      5-min Rain = 0
KAHS 200908Z 13003KT M01/M07 A3032 RMK A01 T10141066  RH  068%=      5-min Rain = 0
KAHS 200909Z 14003KT M02/M07 A3032 RMK A01 T10151066  RH  068%=      5-min Rain = 0
KAHS 200910Z 15003KT M02/M07 A3032 RMK A01 T10151066  RH  068%=      5-min Rain = 0
KAHS 200911Z 14002KT M02/M07 A3032 RMK A01 T10151066  RH  068%=      5-min Rain = 0
KAHS 200912Z 12003KT M02/M07 A3032 RMK A01 T10151067  RH  068%=      5-min Rain = 0
KAHS 200913Z 11003KT M02/M07 A3032 RMK A01 T10151067  RH  068%=      5-min Rain = 0
KAHS 200914Z 11003KT M02/M07 A3032 RMK A01 T10151066  RH  068%=      5-min Rain = 0
KAHS 200915Z 10003KT M02/M07 A3032 RMK A01 T10151067  RH  068%=      5-min Rain = 0
KAHS 200916Z 11003KT M02/M07 A3032 RMK A01 T10151066  RH  068%=      5-min Rain = 0
KAHS 200917Z 11003KT M02/M07 A3032 RMK A01 T10151067  RH  068%=      5-min Rain = 0
KAHS 200918Z 12003KT M02/M07 A3032 RMK A01 T10151067  RH  068%=      5-min Rain = 0
KAHS 200919Z 12003KT M02/M07 A3032 RMK A01 T10151067  RH  068%=      5-min Rain = 0
KAHS 200920Z 11003KT M02/M07 A3032 RMK A01 T10151067  RH  068%=      5-min Rain = 0
KAHS 200921Z 11003KT M02/M07 A3032 RMK A01 T10151067  RH  068%=      5-min Rain = 0
KAHS 200922Z 10004KT M02/M07 A3032 RMK A01 T10151067  RH  068%=      5-min Rain = 0
KAHS 200923Z 10004KT M02/M07 A3033 RMK A01 T10161068  RH  068%=      5-min Rain = 0
KAHS 200924Z 10004KT M02/M07 A3033 RMK A01 T10171067  RH  068%=      5-min Rain = 0
KAHS 200925Z 10004KT M02/M07 A3033 RMK A01 T10171067  RH  069%=      5-min Rain = 0
KAHS 200926Z 11004KT M02/M07 A3033 RMK A01 T10181067  RH  069%=      5-min Rain = 0
KAHS 200927Z 11003KT M02/M07 A3033 RMK A01 T10191067  RH  070%=      5-min Rain = 0
KAHS 200928Z 11003KT M02/M07 A3033 RMK A01 T10201066  RH  071%=      5-min Rain = 0
KAHS 200929Z 11003KT M02/M07 A3033 RMK A01 T10201066  RH  071%=      5-min Rain = 0
KAHS 200930Z 10003KT M02/M07 A3033 RMK A01 T10201065  RH  071%=      5-min Rain = 0
KAHS 200931Z 10003KT M02/M07 A3033 RMK A01 T10201065  RH  071%=      5-min Rain = 0
KAHS 200932Z 10003KT M02/M07 A3033 RMK A01 T10191065  RH  071%=      5-min Rain = 0
KAHS 200933Z 10003KT M02/M07 A3033 RMK A01 T10191065  RH  071%=      5-min Rain = 0
KAHS 200934Z 10003KT M02/M07 A3033 RMK A01 T10191065  RH  071%=      5-min Rain = 0
KAHS 200935Z 10003KT M02/M07 A3033 RMK A01 T10191065  RH  071%=      5-min Rain = 0
KAHS 200936Z 10003KT M02/M07 A3033 RMK A01 T10201065  RH  071%=      5-min Rain = 0
KAHS 200937Z 11002KT M02/M07 A3033 RMK A01 T10201065  RH  071%=      5-min Rain = 0
KAHS 200938Z 11002KT M02/M07 A3033 RMK A01 T10211065  RH  072%=      5-min Rain = 0
KAHS 200939Z 11002KT M02/M07 A3033 RMK A01 T10211065  RH  072%=      5-min Rain = 0
KAHS 200940Z 11002KT M02/M07 A3033 RMK A01 T10211065  RH  072%=      5-min Rain = 0
KAHS 200941Z 12002KT M02/M07 A3033 RMK A01 T10221065  RH  072%=      5-min Rain = 0
KAHS 200942Z 12002KT M02/M07 A3033 RMK A01 T10221065  RH  072%=      5-min Rain = 0
KAHS 200943Z 12002KT M02/M07 A3033 RMK A01 T10231065  RH  073%=      5-min Rain = 0
KAHS 200944Z 13002KT M02/M07 A3033 RMK A01 T10231065  RH  073%=      5-min Rain = 0
KAHS 200945Z 12002KT M02/M07 A3033 RMK A01 T10231065  RH  073%=      5-min Rain = 0
KAHS 200946Z 12002KT M02/M07 A3033 RMK A01 T10241065  RH  073%=      5-min Rain = 0
KAHS 200947Z 14002KT M02/M06 A3033 RMK A01 T10241064  RH  074%=      5-min Rain = 0
KAHS 200948Z 13002KT M02/M06 A3033 RMK A01 T10241064  RH  074%=      5-min Rain = 0
KAHS 200949Z 13001KT M02/M06 A3033 RMK A01 T10231064  RH  074%=      5-min Rain = 0
KAHS 200950Z 15000KT M02/M07 A3033 RMK A01 T10241065  RH  073%=      5-min Rain = 0
KAHS 200951Z 00000KT M03/M07 A3033 RMK A01 T10251065  RH  074%=      5-min Rain = 0
KAHS 200952Z 00000KT M03/M06 A3033 RMK A01 T10251064  RH  074%=      5-min Rain = 0
KAHS 200953Z 12000KT M02/M06 A3033 RMK A01 T10241064  RH  074%=      5-min Rain = 0
KAHS 200954Z 11001KT M02/M06 A3033 RMK A01 T10231064  RH  074%=      5-min Rain = 0
KAHS 200955Z 10001KT M02/M06 A3033 RMK A01 T10221064  RH  073%=      5-min Rain = 0
KAHS 200956Z 10001KT M02/M06 A3033 RMK A01 T10221064  RH  073%=      5-min Rain = 0
KAHS 200957Z 10001KT M02/M06 A3033 RMK A01 T10211064  RH  072%=      5-min Rain = 0
KAHS 200958Z 11001KT M02/M07 A3033 RMK A01 T10211065  RH  072%=      5-min Rain = 0
KAHS 200959Z 11001KT M02/M07 A3033 RMK A01 T10211066  RH  072%=      5-min Rain = 0
KAHS 201000Z 11001KT M02/M07 A3033 RMK A01 T10211066  RH  071%=      5-min Rain = 0
KAHS 201001Z 11001KT M02/M07 A3033 RMK A01 T10211066  RH  071%=      5-min Rain = 0
KAHS 201002Z 11001KT M02/M07 A3033 RMK A01 T10201066  RH  071%=      5-min Rain = 0
KAHS 201003Z 11001KT M02/M07 A3033 RMK A01 T10201066  RH  071%=      5-min Rain = 0
KAHS 201004Z 10002KT M02/M07 A3033 RMK A01 T10201066  RH  071%=      5-min Rain = 0
KAHS 201005Z 10002KT M02/M07 A3033 RMK A01 T10201065  RH  071%=      5-min Rain = 0
KAHS 201006Z 10001KT M02/M07 A3033 RMK A01 T10191065  RH  071%=      5-min Rain = 0
KAHS 201007Z 11001KT M02/M07 A3033 RMK A01 T10191065  RH  071%=      5-min Rain = 0
KAHS 201008Z 10002KT M02/M07 A3033 RMK A01 T10191065  RH  071%=      5-min Rain = 0
KAHS 201009Z 11002KT M02/M07 A3033 RMK A01 T10191065  RH  071%=      5-min Rain = 0
KAHS 201010Z 11002KT M02/M07 A3033 RMK A01 T10201066  RH  071%=      5-min Rain = 0
KAHS 201011Z 10002KT M02/M07 A3033 RMK A01 T10201065  RH  071%=      5-min Rain = 0
KAHS 201012Z 10003KT M02/M07 A3032 RMK A01 T10201065  RH  071%=      5-min Rain = 0
KAHS 201013Z 09003KT M02/M07 A3032 RMK A01 T10201065  RH  071%=      5-min Rain = 0
KAHS 201014Z 09003KT M02/M07 A3033 RMK A01 T10201065  RH  071%=      5-min Rain = 0
KAHS 201015Z 10003KT M02/M07 A3033 RMK A01 T10201065  RH  071%=      5-min Rain = 0
KAHS 201016Z 10003KT M02/M07 A3033 RMK A01 T10201065  RH  072%=      5-min Rain = 0
KAHS 201017Z 10003KT M02/M07 A3033 RMK A01 T10211065  RH  072%=      5-min Rain = 0
KAHS 201018Z 10003KT M02/M07 A3033 RMK A01 T10211065  RH  072%=      5-min Rain = 0
KAHS 201019Z 10003KT M02/M06 A3032 RMK A01 T10211064  RH  072%=      5-min Rain = 0
KAHS 201020Z 10003KT M02/M07 A3032 RMK A01 T10221065  RH  072%=      5-min Rain = 0
KAHS 201021Z 10003KT M02/M07 A3032 RMK A01 T10221065  RH  072%=      5-min Rain = 0
KAHS 201022Z 10002KT M02/M07 A3032 RMK A01 T10221065  RH  073%=      5-min Rain = 0
KAHS 201023Z 10002KT M02/M07 A3032 RMK A01 T10231065  RH  073%=      5-min Rain = 0
KAHS 201024Z 11002KT M02/M07 A3032 RMK A01 T10231065  RH  073%=      5-min Rain = 0
KAHS 201025Z 11003KT M02/M06 A3032 RMK A01 T10231064  RH  073%=      5-min Rain = 0
KAHS 201026Z 10003KT M02/M06 A3032 RMK A01 T10241064  RH  074%=      5-min Rain = 0
KAHS 201027Z 10003KT M02/M06 A3032 RMK A01 T10241064  RH  074%=      5-min Rain = 0
KAHS 201028Z 10003KT M02/M06 A3032 RMK A01 T10241063  RH  074%=      5-min Rain = 0
KAHS 201029Z 10003KT M02/M06 A3032 RMK A01 T10241063  RH  074%=      5-min Rain = 0
KAHS 201030Z 10003KT M02/M06 A3032 RMK A01 T10241063  RH  075%=      5-min Rain = 0
KAHS 201031Z 10003KT M02/M06 A3032 RMK A01 T10241063  RH  075%=      5-min Rain = 0
KAHS 201032Z 09003KT M03/M06 A3032 RMK A01 T10251063  RH  075%=      5-min Rain = 0
KAHS 201033Z 09003KT M03/M06 A3032 RMK A01 T10251063  RH  075%=      5-min Rain = 0
KAHS 201034Z 10003KT M03/M06 A3032 RMK A01 T10261063  RH  075%=      5-min Rain = 0
KAHS 201035Z 10003KT M03/M06 A3032 RMK A01 T10261063  RH  076%=      5-min Rain = 0
KAHS 201036Z 10003KT M03/M06 A3032 RMK A01 T10271063  RH  076%=      5-min Rain = 0
KAHS 201037Z 09003KT M03/M06 A3032 RMK A01 T10271063  RH  076%=      5-min Rain = 0
KAHS 201038Z 09003KT M03/M06 A3032 RMK A01 T10281063  RH  076%=      5-min Rain = 0
KAHS 201039Z 09003KT M03/M06 A3032 RMK A01 T10281063  RH  077%=      5-min Rain = 0
KAHS 201040Z 08003KT M03/M06 A3032 RMK A01 T10281063  RH  077%=      5-min Rain = 0
KAHS 201041Z 08003KT M03/M06 A3032 RMK A01 T10291063  RH  078%=      5-min Rain = 0
KAHS 201042Z 08003KT M03/M06 A3032 RMK A01 T10291062  RH  078%=      5-min Rain = 0
KAHS 201043Z 07003KT M03/M06 A3032 RMK A01 T10301061  RH  079%=      5-min Rain = 0
KAHS 201044Z 07003KT M03/M06 A3032 RMK A01 T10301061  RH  079%=      5-min Rain = 0
KAHS 201045Z 08003KT M03/M06 A3032 RMK A01 T10301060  RH  079%=      5-min Rain = 0
KAHS 201046Z 08003KT M03/M06 A3032 RMK A01 T10301060  RH  080%=      5-min Rain = 0
KAHS 201047Z 08003KT M03/M06 A3031 RMK A01 T10301059  RH  080%=      5-min Rain = 0
KAHS 201048Z 08003KT M03/M06 A3031 RMK A01 T10301060  RH  080%=      5-min Rain = 0
KAHS 201049Z 08003KT M03/M06 A3031 RMK A01 T10301060  RH  080%=      5-min Rain = 0
KAHS 201050Z 08003KT M03/M06 A3031 RMK A01 T10311060  RH  080%=      5-min Rain = 0
KAHS 201051Z 08004KT M03/M06 A3031 RMK A01 T10301059  RH  080%=      5-min Rain = 0
KAHS 201052Z 08004KT M03/M06 A3031 RMK A01 T10311060  RH  080%=      5-min Rain = 0
KAHS 201053Z 08004KT M03/M06 A3031 RMK A01 T10311060  RH  080%=      5-min Rain = 0
KAHS 201054Z 08004KT M03/M06 A3031 RMK A01 T10321061  RH  080%=      5-min Rain = 0
KAHS 201055Z 08004KT M03/M06 A3031 RMK A01 T10321061  RH  081%=      5-min Rain = 0
KAHS 201056Z 08005KT M03/M06 A3031 RMK A01 T10331061  RH  081%=      5-min Rain = 0
KAHS 201057Z 08004KT M03/M06 A3031 RMK A01 T10341062  RH  081%=      5-min Rain = 0
KAHS 201058Z 08004KT M03/M06 A3031 RMK A01 T10341062  RH  081%=      5-min Rain = 0
KAHS 201059Z 08004KT M04/M06 A3031 RMK A01 T10351061  RH  082%=      5-min Rain = 0
KAHS 201100Z 08004KT M03/M06 A3031 RMK A01 T10341061  RH  082%=      5-min Rain = 0
KAHS 201101Z 08003KT M03/M06 A3031 RMK A01 T10341060  RH  082%=      5-min Rain = 0
KAHS 201102Z 08003KT M03/M06 A3031 RMK A01 T10341060  RH  082%=      5-min Rain = 0
KAHS 201103Z 08003KT M03/M06 A3031 RMK A01 T10341060  RH  082%=      5-min Rain = 0
KAHS 201104Z 08003KT M03/M06 A3031 RMK A01 T10341060  RH  082%=      5-min Rain = 0
KAHS 201105Z 08003KT M04/M06 A3031 RMK A01 T10351061  RH  082%=      5-min Rain = 0
KAHS 201106Z 08003KT M04/M06 A3031 RMK A01 T10351061  RH  082%=      5-min Rain = 0
KAHS 201107Z 07003KT M04/M06 A3031 RMK A01 T10351061  RH  082%=      5-min Rain = 0
KAHS 201108Z 07003KT M04/M06 A3031 RMK A01 T10351061  RH  082%=      5-min Rain = 0
KAHS 201109Z 07002KT M04/M06 A3031 RMK A01 T10351061  RH  082%=      5-min Rain = 0
KAHS 201110Z 08002KT M04/M06 A3031 RMK A01 T10351062  RH  082%=      5-min Rain = 0
KAHS 201111Z 07002KT M04/M06 A303 RMK A01 T10361062  RH  082%=      5-min Rain = 0
KAHS 201112Z 07002KT M04/M06 A303 RMK A01 T10361062  RH  082%=      5-min Rain = 0
KAHS 201113Z 07002KT M04/M06 A303 RMK A01 T10371062  RH  082%=      5-min Rain = 0
KAHS 201114Z 07002KT M04/M06 A303 RMK A01 T10371063  RH  082%=      5-min Rain = 0
KAHS 201115Z 06003KT M04/M06 A303 RMK A01 T10361062  RH  082%=      5-min Rain = 0
KAHS 201116Z 06003KT M04/M06 A303 RMK A01 T10351061  RH  082%=      5-min Rain = 0
KAHS 201117Z 06003KT M03/M06 A303 RMK A01 T10341061  RH  082%=      5-min Rain = 0
KAHS 201118Z 07003KT M03/M06 A303 RMK A01 T10331062  RH  081%=      5-min Rain = 0
KAHS 201119Z 08002KT M03/M06 A303 RMK A01 T10331062  RH  081%=      5-min Rain = 0
KAHS 201120Z 09002KT M03/M06 A303 RMK A01 T10321061  RH  080%=      5-min Rain = 0
KAHS 201121Z 10003KT M03/M06 A303 RMK A01 T10311061  RH  080%=      5-min Rain = 0
KAHS 201122Z 09002KT M03/M06 A303 RMK A01 T10301061  RH  079%=      5-min Rain = 0
KAHS 201123Z 09002KT M03/M06 A303 RMK A01 T10291062  RH  078%=      5-min Rain = 0
KAHS 201124Z 10001KT M03/M06 A303 RMK A01 T10291063  RH  077%=      5-min Rain = 0
KAHS 201125Z 10002KT M03/M06 A303 RMK A01 T10291063  RH  077%=      5-min Rain = 0
KAHS 201126Z 09002KT M03/M06 A303 RMK A01 T10281063  RH  077%=      5-min Rain = 0
KAHS 201127Z 09002KT M03/M06 A303 RMK A01 T10281063  RH  077%=      5-min Rain = 0
KAHS 201128Z 09002KT M03/M06 A303 RMK A01 T10281064  RH  076%=      5-min Rain = 0
KAHS 201129Z 09002KT M03/M06 A303 RMK A01 T10281064  RH  076%=      5-min Rain = 0
KAHS 201130Z 11002KT M03/M06 A303 RMK A01 T10281064  RH  076%=      5-min Rain = 0
KAHS 201131Z 11003KT M03/M06 A303 RMK A01 T10281064  RH  076%=      5-min Rain = 0
KAHS 201132Z 12002KT M03/M06 A303 RMK A01 T10281064  RH  076%=      5-min Rain = 0
KAHS 201133Z 12002KT M03/M06 A303 RMK A01 T10281064  RH  076%=      5-min Rain = 0
KAHS 201134Z 12002KT M03/M06 A303 RMK A01 T10281064  RH  076%=      5-min Rain = 0
KAHS 201135Z 13003KT M03/M06 A303 RMK A01 T10281064  RH  076%=      5-min Rain = 0
KAHS 201136Z 12003KT M03/M06 A303 RMK A01 T10281064  RH  076%=      5-min Rain = 0
KAHS 201137Z 12003KT M03/M06 A303 RMK A01 T10281064  RH  076%=      5-min Rain = 0
KAHS 201138Z 12003KT M03/M06 A303 RMK A01 T10281064  RH  076%=      5-min Rain = 0
KAHS 201139Z 11003KT M03/M07 A303 RMK A01 T10281065  RH  076%=      5-min Rain = 0
KAHS 201140Z 11003KT M03/M07 A303 RMK A01 T10281065  RH  076%=      5-min Rain = 0
KAHS 201141Z 12003KT M03/M07 A3029 RMK A01 T10281065  RH  076%=      5-min Rain = 0
KAHS 201142Z 12003KT M03/M07 A3029 RMK A01 T10291065  RH  076%=      5-min Rain = 0
KAHS 201143Z 12002KT M03/M07 A3029 RMK A01 T10291065  RH  076%=      5-min Rain = 0
KAHS 201144Z 12002KT M03/M07 A3029 RMK A01 T10291065  RH  076%=      5-min Rain = 0
KAHS 201145Z 11002KT M03/M07 A3029 RMK A01 T10301066  RH  076%=      5-min Rain = 0
KAHS 201146Z 11002KT M03/M07 A3029 RMK A01 T10311066  RH  077%=      5-min Rain = 0
KAHS 201147Z 11002KT M03/M07 A3029 RMK A01 T10321066  RH  077%=      5-min Rain = 0
KAHS 201148Z 12002KT M03/M07 A3029 RMK A01 T10331066  RH  078%=      5-min Rain = 0
KAHS 201149Z 13002KT M03/M07 A3029 RMK A01 T10331066  RH  078%=      5-min Rain = 0
KAHS 201150Z 13002KT M03/M07 A3029 RMK A01 T10321065  RH  078%=      5-min Rain = 0
KAHS 201151Z 13002KT M03/M07 A3029 RMK A01 T10321066  RH  077%=      5-min Rain = 0
KAHS 201152Z 13002KT M03/M07 A3029 RMK A01 T10321066  RH  077%=      5-min Rain = 0
KAHS 201153Z 14002KT M03/M07 A3029 RMK A01 T10321066  RH  077%=      5-min Rain = 0
KAHS 201154Z 15000KT M03/M07 A3029 RMK A01 T10321066  RH  077%=      5-min Rain = 0
KAHS 201155Z 00000KT M03/M07 A3029 RMK A01 T10341068  RH  077%=      5-min Rain = 0
KAHS 201156Z 20000KT M04/M07 A3029 RMK A01 T10361068  RH  078%=      5-min Rain = 0
KAHS 201157Z 20000KT M04/M07 A3029 RMK A01 T10371067  RH  080%=      5-min Rain = 0
KAHS 201158Z 22001KT M04/M07 A3029 RMK A01 T10381067  RH  080%=      5-min Rain = 0
KAHS 201159Z 21001KT M04/M07 A3029 RMK A01 T10381066  RH  081%=      5-min Rain = 0
KAHS 201200Z 21001KT M04/M06 A3029 RMK A01 T10351064  RH  080%=      5-min Rain = 0
KAHS 201201Z 20002KT M03/M07 A3029 RMK A01 T10331065  RH  079%=      5-min Rain = 0
KAHS 201202Z 20002KT M03/M07 A3029 RMK A01 T10321065  RH  078%=      5-min Rain = 0
KAHS 201203Z 19002KT M03/M07 A3029 RMK A01 T10311066  RH  077%=      5-min Rain = 0
KAHS 201204Z 20002KT M03/M07 A3029 RMK A01 T10301066  RH  076%=      5-min Rain = 0
KAHS 201205Z 21003KT M03/M07 A3029 RMK A01 T10291065  RH  076%=      5-min Rain = 0
KAHS 201206Z 21003KT M03/M07 A3029 RMK A01 T10281066  RH  075%=      5-min Rain = 0
KAHS 201207Z 21003KT M03/M07 A3029 RMK A01 T10281066  RH  075%=      5-min Rain = 0
KAHS 201208Z 21004KT M03/M07 A3029 RMK A01 T10271066  RH  075%=      5-min Rain = 0
KAHS 201209Z 20004KT M03/M07 A3029 RMK A01 T10271066  RH  075%=      5-min Rain = 0
KAHS 201210Z 20004KT M03/M07 A3029 RMK A01 T10281067  RH  075%=      5-min Rain = 0
KAHS 201211Z 19004KT M03/M07 A3029 RMK A01 T10311068  RH  075%=      5-min Rain = 0
KAHS 201212Z 19003KT M03/M07 A3029 RMK A01 T10321068  RH  076%=      5-min Rain = 0
KAHS 201213Z 19003KT M03/M07 A3029 RMK A01 T10321066  RH  078%=      5-min Rain = 0
KAHS 201214Z 19003KT M03/M07 A3029 RMK A01 T10321065  RH  078%=      5-min Rain = 0
KAHS 201215Z 19003KT M03/M06 A3029 RMK A01 T10301064  RH  078%=      5-min Rain = 0
KAHS 201216Z 20003KT M03/M06 A3029 RMK A01 T10291064  RH  077%=      5-min Rain = 0
KAHS 201217Z 20003KT M03/M06 A3028 RMK A01 T10291064  RH  077%=      5-min Rain = 0
KAHS 201218Z 20003KT M03/M06 A3028 RMK A01 T10281064  RH  076%=      5-min Rain = 0
KAHS 201219Z 21003KT M03/M06 A3028 RMK A01 T10281064  RH  076%=      5-min Rain = 0
KAHS 201220Z 20003KT M03/M06 A3028 RMK A01 T10281064  RH  076%=      5-min Rain = 0
KAHS 201221Z 20003KT M03/M06 A3028 RMK A01 T10281064  RH  076%=      5-min Rain = 0
KAHS 201222Z 20003KT M03/M06 A3028 RMK A01 T10271064  RH  076%=      5-min Rain = 0
KAHS 201223Z 20003KT M03/M06 A3029 RMK A01 T10271064  RH  075%=      5-min Rain = 0
KAHS 201224Z 20003KT M03/M06 A3028 RMK A01 T10261064  RH  075%=      5-min Rain = 0
KAHS 201225Z 20003KT M03/M07 A3028 RMK A01 T10261065  RH  075%=      5-min Rain = 0
KAHS 201226Z 20003KT M03/M07 A3028 RMK A01 T10261065  RH  074%=      5-min Rain = 0
KAHS 201227Z 20003KT M03/M07 A3028 RMK A01 T10261066  RH  074%=      5-min Rain = 0
KAHS 201228Z 20002KT M03/M07 A3028 RMK A01 T10261066  RH  074%=      5-min Rain = 0
KAHS 201229Z 20002KT M03/M07 A3028 RMK A01 T10261066  RH  074%=      5-min Rain = 0
KAHS 201230Z 20002KT M03/M07 A3028 RMK A01 T10261066  RH  074%=      5-min Rain = 0
KAHS 201231Z 20003KT M03/M07 A3028 RMK A01 T10251066  RH  073%=      5-min Rain = 0
KAHS 201232Z 21002KT M03/M07 A3028 RMK A01 T10251066  RH  073%=      5-min Rain = 0
KAHS 201233Z 21002KT M03/M07 A3028 RMK A01 T10251066  RH  073%=      5-min Rain = 0
KAHS 201234Z 20003KT M03/M07 A3028 RMK A01 T10251066  RH  073%=      5-min Rain = 0
KAHS 201235Z 20003KT M03/M07 A3028 RMK A01 T10251066  RH  074%=      5-min Rain = 0
KAHS 201236Z 19003KT M03/M07 A3028 RMK A01 T10251065  RH  074%=      5-min Rain = 0
KAHS 201237Z 19003KT M03/M06 A3028 RMK A01 T10251063  RH  075%=      5-min Rain = 0
KAHS 201238Z 19003KT M02/M06 A3028 RMK A01 T10241062  RH  075%=      5-min Rain = 0
KAHS 201239Z 19003KT M02/M06 A3028 RMK A01 T10241062  RH  075%=      5-min Rain = 0
KAHS 201240Z 20003KT M02/M06 A3028 RMK A01 T10241063  RH  075%=      5-min Rain = 0
KAHS 201241Z 20003KT M03/M06 A3028 RMK A01 T10251063  RH  075%=      5-min Rain = 0
KAHS 201242Z 19002KT M03/M06 A3028 RMK A01 T10251063  RH  075%=      5-min Rain = 0
KAHS 201243Z 19002KT M03/M06 A3028 RMK A01 T10251063  RH  075%=      5-min Rain = 0
KAHS 201244Z 19002KT M03/M06 A3028 RMK A01 T10261063  RH  075%=      5-min Rain = 0
KAHS 201245Z 19002KT M03/M06 A3028 RMK A01 T10261063  RH  076%=      5-min Rain = 0
KAHS 201246Z 19001KT M03/M06 A3028 RMK A01 T10261062  RH  076%=      5-min Rain = 0
KAHS 201247Z 18001KT M03/M06 A3028 RMK A01 T10261063  RH  076%=      5-min Rain = 0
KAHS 201248Z 18001KT M03/M06 A3028 RMK A01 T10261063  RH  076%=      5-min Rain = 0
KAHS 201249Z 18001KT M03/M06 A3028 RMK A01 T10261061  RH  077%=      5-min Rain = 0
KAHS 201250Z 19001KT M03/M06 A3029 RMK A01 T10261060  RH  077%=      5-min Rain = 0
KAHS 201251Z 19001KT M03/M06 A3029 RMK A01 T10251059  RH  078%=      5-min Rain = 0
KAHS 201252Z 18001KT M03/M06 A3029 RMK A01 T10251059  RH  078%=      5-min Rain = 0
KAHS 201253Z 18001KT M02/M06 A3029 RMK A01 T10241058  RH  078%=      5-min Rain = 0
KAHS 201254Z 17001KT M02/M06 A3028 RMK A01 T10241058  RH  078%=      5-min Rain = 0
KAHS 201255Z 17001KT M02/M06 A3028 RMK A01 T10241058  RH  077%=      5-min Rain = 0
KAHS 201256Z 17001KT M02/M06 A3028 RMK A01 T10241059  RH  077%=      5-min Rain = 0
KAHS 201257Z 17001KT M02/M06 A3028 RMK A01 T10241059  RH  077%=      5-min Rain = 0
KAHS 201258Z 16001KT M02/M06 A3028 RMK A01 T10241060  RH  077%=      5-min Rain = 0
KAHS 201259Z 16001KT M03/M06 A3028 RMK A01 T10251061  RH  076%=      5-min Rain = 0
KAHS 201300Z 16001KT M03/M06 A3028 RMK A01 T10251060  RH  077%=      5-min Rain = 0
KAHS 201301Z 16000KT M03/M06 A3028 RMK A01 T10251060  RH  077%=      5-min Rain = 0
KAHS 201302Z 16001KT M02/M06 A3028 RMK A01 T10241060  RH  077%=      5-min Rain = 0
KAHS 201303Z 17002KT M02/M06 A3028 RMK A01 T10241060  RH  077%=      5-min Rain = 0
KAHS 201304Z 16001KT M02/M06 A3028 RMK A01 T10241059  RH  077%=      5-min Rain = 0
KAHS 201305Z 15002KT M02/M06 A3028 RMK A01 T10241060  RH  076%=      5-min Rain = 0
KAHS 201306Z 15001KT M02/M06 A3028 RMK A01 T10241060  RH  076%=      5-min Rain = 0
KAHS 201307Z 12001KT M03/M06 A3028 RMK A01 T10251062  RH  076%=      5-min Rain = 0
KAHS 201308Z 12002KT M03/M06 A3028 RMK A01 T10291064  RH  077%=      5-min Rain = 0
KAHS 201309Z 11001KT M03/M06 A3028 RMK A01 T10301063  RH  078%=      5-min Rain = 0
KAHS 201310Z 10002KT M03/M06 A3028 RMK A01 T10301061  RH  079%=      5-min Rain = 0
KAHS 201311Z 10002KT M03/M06 A3028 RMK A01 T10291060  RH  079%=      5-min Rain = 0
KAHS 201312Z 11002KT M03/M06 A3028 RMK A01 T10281061  RH  078%=      5-min Rain = 0
KAHS 201313Z 14002KT M03/M06 A3028 RMK A01 T10281061  RH  078%=      5-min Rain = 0
KAHS 201314Z 13002KT M03/M06 A3028 RMK A01 T10281061  RH  078%=      5-min Rain = 0
KAHS 201315Z 14002KT M03/M06 A3028 RMK A01 T10271061  RH  077%=      5-min Rain = 0
KAHS 201316Z 13002KT M03/M06 A3028 RMK A01 T10271062  RH  077%=      5-min Rain = 0
KAHS 201317Z 12002KT M03/M06 A3028 RMK A01 T10271062  RH  077%=      5-min Rain = 0
KAHS 201318Z 12002KT M03/M06 A3028 RMK A01 T10271062  RH  077%=      5-min Rain = 0
KAHS 201319Z 13002KT M03/M06 A3028 RMK A01 T10271063  RH  077%=      5-min Rain = 0
KAHS 201320Z 13002KT M03/M06 A3028 RMK A01 T10281063  RH  077%=      5-min Rain = 0
KAHS 201321Z 13002KT M03/M06 A3029 RMK A01 T10281063  RH  077%=      5-min Rain = 0
KAHS 201322Z 14002KT M03/M06 A3029 RMK A01 T10291063  RH  077%=      5-min Rain = 0
KAHS 201323Z 15002KT M03/M06 A3029 RMK A01 T10291063  RH  077%=      5-min Rain = 0
KAHS 201324Z 15002KT M03/M06 A3028 RMK A01 T10291063  RH  077%=      5-min Rain = 0
KAHS 201325Z 15002KT M03/M06 A3028 RMK A01 T10291063  RH  077%=      5-min Rain = 0
KAHS 201326Z 15002KT M03/M06 A3029 RMK A01 T10301063  RH  078%=      5-min Rain = 0
KAHS 201327Z 14002KT M03/M06 A3029 RMK A01 T10301063  RH  078%=      5-min Rain = 0
KAHS 201328Z 15002KT M03/M06 A3029 RMK A01 T10301063  RH  078%=      5-min Rain = 0
KAHS 201329Z 15002KT M03/M06 A3029 RMK A01 T10301062  RH  078%=      5-min Rain = 0
KAHS 201330Z 15002KT M03/M06 A3029 RMK A01 T10301063  RH  078%=      5-min Rain = 0
KAHS 201331Z 15002KT M03/M06 A3029 RMK A01 T10301063  RH  078%=      5-min Rain = 0
KAHS 201332Z 15002KT M03/M06 A3029 RMK A01 T10301063  RH  078%=      5-min Rain = 0
KAHS 201333Z 15002KT M03/M06 A3029 RMK A01 T10301063  RH  078%=      5-min Rain = 0
KAHS 201334Z 15002KT M03/M06 A3029 RMK A01 T10301063  RH  078%=      5-min Rain = 0
KAHS 201335Z 15002KT M03/M06 A3029 RMK A01 T10301063  RH  078%=      5-min Rain = 0
KAHS 201336Z 16003KT M03/M06 A3029 RMK A01 T10291063  RH  078%=      5-min Rain = 0
KAHS 201337Z 16003KT M03/M06 A3029 RMK A01 T10291063  RH  077%=      5-min Rain = 0
KAHS 201338Z 16003KT M03/M06 A3029 RMK A01 T10291063  RH  077%=      5-min Rain = 0
KAHS 201339Z 16003KT M03/M06 A3029 RMK A01 T10281063  RH  077%=      5-min Rain = 0
KAHS 201340Z 16003KT M03/M06 A3029 RMK A01 T10271063  RH  077%=      5-min Rain = 0
KAHS 201341Z 16003KT M03/M06 A3029 RMK A01 T10271063  RH  076%=      5-min Rain = 0
KAHS 201342Z 15004KT M03/M06 A3028 RMK A01 T10261062  RH  076%=      5-min Rain = 0
KAHS 201343Z 16004KT M03/M06 A3028 RMK A01 T10251062  RH  076%=      5-min Rain = 0
KAHS 201344Z 17004KT M03/M06 A3028 RMK A01 T10251063  RH  075%=      5-min Rain = 0
KAHS 201345Z 17004KT M02/M06 A3028 RMK A01 T10241063  RH  075%=      5-min Rain = 0
KAHS 201346Z 17004KT M02/M06 A3029 RMK A01 T10241063  RH  075%=      5-min Rain = 0
KAHS 201347Z 17004KT M03/M06 A3029 RMK A01 T10251063  RH  075%=      5-min Rain = 0
KAHS 201348Z 17004KT M03/M06 A3029 RMK A01 T10251063  RH  075%=      5-min Rain = 0
KAHS 201349Z 17004KT M03/M06 A3029 RMK A01 T10261063  RH  075%=      5-min Rain = 0
KAHS 201350Z 17004KT M03/M06 A3029 RMK A01 T10261063  RH  076%=      5-min Rain = 0
KAHS 201351Z 17004KT M03/M06 A3029 RMK A01 T10261063  RH  076%=      5-min Rain = 0
KAHS 201352Z 18005KT M03/M06 A3029 RMK A01 T10251062  RH  076%=      5-min Rain = 0
KAHS 201353Z 18005KT M03/M06 A3029 RMK A01 T10251062  RH  075%=      5-min Rain = 0
KAHS 201354Z 18004KT M02/M06 A3029 RMK A01 T10241062  RH  075%=      5-min Rain = 0
KAHS 201355Z 18005KT M02/M06 A3029 RMK A01 T10241062  RH  075%=      5-min Rain = 0
KAHS 201356Z 18005KT M02/M06 A3029 RMK A01 T10231062  RH  075%=      5-min Rain = 0
KAHS 201357Z 19005KT M02/M06 A3029 RMK A01 T10241062  RH  075%=      5-min Rain = 0
KAHS 201358Z 19005KT M02/M06 A3029 RMK A01 T10241062  RH  075%=      5-min Rain = 0
KAHS 201359Z 19004KT M03/M06 A3029 RMK A01 T10261063  RH  076%=      5-min Rain = 0
KAHS 201400Z 19004KT M03/M06 A3029 RMK A01 T10261063  RH  076%=      5-min Rain = 0
KAHS 201401Z 19004KT M03/M06 A3029 RMK A01 T10261062  RH  076%=      5-min Rain = 0
KAHS 201402Z 19005KT M03/M06 A3029 RMK A01 T10261062  RH  076%=      5-min Rain = 0
KAHS 201403Z 19004KT M03/M06 A3029 RMK A01 T10271063  RH  076%=      5-min Rain = 0
KAHS 201404Z 20004KT M03/M06 A3029 RMK A01 T10271062  RH  077%=      5-min Rain = 0
KAHS 201405Z 20004KT M03/M06 A3029 RMK A01 T10261061  RH  077%=      5-min Rain = 0
KAHS 201406Z 20004KT M03/M06 A3029 RMK A01 T10271062  RH  077%=      5-min Rain = 0
KAHS 201407Z 20004KT M03/M06 A3029 RMK A01 T10271061  RH  077%=      5-min Rain = 0
KAHS 201408Z 20004KT M03/M06 A3029 RMK A01 T10261060  RH  077%=      5-min Rain = 0
KAHS 201409Z 20004KT M03/M06 A3029 RMK A01 T10251059  RH  078%=      5-min Rain = 0
KAHS 201410Z 20005KT M03/M06 A3029 RMK A01 T10251058  RH  078%=      5-min Rain = 0
KAHS 201411Z 20005KT M02/M06 A3029 RMK A01 T10241058  RH  078%=      5-min Rain = 0
KAHS 201412Z 19005KT M02/M06 A3029 RMK A01 T10241058  RH  077%=      5-min Rain = 0
KAHS 201413Z 20005KT M02/M06 A3029 RMK A01 T10231057  RH  077%=      5-min Rain = 0
KAHS 201414Z 19005KT M02/M06 A3029 RMK A01 T10221057  RH  077%=      5-min Rain = 0
KAHS 201415Z 19004KT M02/M06 A3029 RMK A01 T10211057  RH  076%=      5-min Rain = 0
KAHS 201416Z 19004KT M02/M06 A3029 RMK A01 T10201057  RH  076%=      5-min Rain = 0
KAHS 201417Z 20004KT M02/M06 A3029 RMK A01 T10191056  RH  076%=      5-min Rain = 0
KAHS 201418Z 20004KT M02/M06 A3029 RMK A01 T10181056  RH  075%=      5-min Rain = 0
KAHS 201419Z 20004KT M02/M06 A3029 RMK A01 T10171056  RH  075%=      5-min Rain = 0
KAHS 201420Z 19004KT M02/M06 A3029 RMK A01 T10161056  RH  074%=      5-min Rain = 0
KAHS 201421Z 20004KT M02/M06 A3029 RMK A01 T10161056  RH  074%=      5-min Rain = 0
KAHS 201422Z 19004KT M02/M06 A3029 RMK A01 T10151056  RH  074%=      5-min Rain = 0
KAHS 201423Z 19004KT M01/M06 A3029 RMK A01 T10141056  RH  073%=      5-min Rain = 0
KAHS 201424Z 19004KT M01/M06 A3029 RMK A01 T10141056  RH  073%=      5-min Rain = 0
KAHS 201425Z 19004KT M01/M06 A3029 RMK A01 T10131056  RH  073%=      5-min Rain = 0
KAHS 201426Z 19004KT M01/M06 A3029 RMK A01 T10131056  RH  073%=      5-min Rain = 0
KAHS 201427Z 18003KT M01/M06 A3029 RMK A01 T10131056  RH  073%=      5-min Rain = 0
KAHS 201428Z 18004KT M01/M06 A3029 RMK A01 T10131056  RH  073%=      5-min Rain = 0
KAHS 201429Z 18004KT M01/M06 A3029 RMK A01 T10131056  RH  072%=      5-min Rain = 0
KAHS 201430Z 18004KT M01/M06 A3029 RMK A01 T10131056  RH  072%=      5-min Rain = 0
KAHS 201431Z 18004KT M01/M06 A3029 RMK A01 T10131056  RH  072%=      5-min Rain = 0
KAHS 201432Z 19004KT M01/M06 A3029 RMK A01 T10131056  RH  072%=      5-min Rain = 0
KAHS 201433Z 19004KT M01/M06 A3029 RMK A01 T10131056  RH  072%=      5-min Rain = 0
KAHS 201434Z 19004KT M01/M06 A3029 RMK A01 T10131056  RH  072%=      5-min Rain = 0
KAHS 201435Z 19004KT M01/M06 A3029 RMK A01 T10131056  RH  072%=      5-min Rain = 0
KAHS 201436Z 19004KT M01/M06 A3029 RMK A01 T10131056  RH  072%=      5-min Rain = 0
KAHS 201437Z 19004KT M01/M06 A3029 RMK A01 T10121056  RH  072%=      5-min Rain = 0
KAHS 201438Z 19004KT M01/M06 A3029 RMK A01 T10111056  RH  071%=      5-min Rain = 0
KAHS 201439Z 19004KT M01/M06 A3029 RMK A01 T10101057  RH  071%=      5-min Rain = 0
KAHS 201440Z 19004KT M01/M06 A3029 RMK A01 T10101057  RH  071%=      5-min Rain = 0
KAHS 201441Z 19004KT M01/M06 A3029 RMK A01 T10101056  RH  071%=      5-min Rain = 0
KAHS 201442Z 20004KT M01/M06 A3029 RMK A01 T10101056  RH  071%=      5-min Rain = 0
KAHS 201443Z 20005KT M01/M06 A3029 RMK A01 T10101056  RH  071%=      5-min Rain = 0
KAHS 201444Z 19006KT M01/M06 A3029 RMK A01 T10091055  RH  071%=      5-min Rain = 0
KAHS 201445Z 19008KT M01/M06 A3029 RMK A01 T10071055  RH  070%=      5-min Rain = 0
KAHS 201446Z 19006KT M00/M06 A3029 RMK A01 T10041055  RH  069%=      5-min Rain = 0
KAHS 201447Z 19006KT M00/M06 A3029 RMK A01 T10031055  RH  068%=      5-min Rain = 0
KAHS 201448Z 19006KT M00/M05 A3029 RMK A01 T10021054  RH  068%=      5-min Rain = 0
KAHS 201449Z 19008KT M00/M05 A3029 RMK A01 T10011054  RH  068%=      5-min Rain = 0
KAHS 201450Z 20006KT 00/06 A3029 RMK A01 T00-00-55  RH  067%=      5-min Rain = 0
KAHS 201451Z 20007KT 00/05 A3029 RMK A01 T00-00-54  RH  067%=      5-min Rain = 0
KAHS 201452Z 19006KT 00/05 A3029 RMK A01 T00-00-54  RH  067%=      5-min Rain = 0
KAHS 201453Z 19005KT 00/05 A3029 RMK A01 T00000-53  RH  067%=      5-min Rain = 0
KAHS 201454Z 19006KT 00/M05 A3029 RMK A01 T00011053  RH  067%=      5-min Rain = 0
KAHS 201455Z 18006KT 00/M05 A3029 RMK A01 T00011053  RH  067%=      5-min Rain = 0
KAHS 201456Z 19005KT 00/M05 A3029 RMK A01 T00011052  RH  067%=      5-min Rain = 0
KAHS 201457Z 19006KT 00/M05 A3029 RMK A01 T00021052  RH  067%=      5-min Rain = 0
KAHS 201458Z 18006KT 00/M05 A303 RMK A01 T00021052  RH  067%=      5-min Rain = 0
KAHS 201459Z 19006KT 00/M05 A3029 RMK A01 T00031050  RH  067%=      5-min Rain = 0
KAHS 201500Z 19007KT 00/M05 A3029 RMK A01 T00041050  RH  067%=      5-min Rain = 0
KAHS 201501Z 19006KT 01/M05 A3029 RMK A01 T00051051  RH  066%=      5-min Rain = 0
KAHS 201502Z 18006KT 01/M05 A3029 RMK A01 T00061051  RH  066%=      5-min Rain = 0
KAHS 201503Z 18005KT 01/M05 A3029 RMK A01 T00071048  RH  066%=      5-min Rain = 0
KAHS 201504Z 19006KT 01/M05 A3029 RMK A01 T00081048  RH  066%=      5-min Rain = 0
KAHS 201505Z 19007KT 01/M05 A3029 RMK A01 T00091049  RH  065%=      5-min Rain = 0
KAHS 201506Z 18007KT 01/M05 A3029 RMK A01 T00101050  RH  064%=      5-min Rain = 0
KAHS 201507Z 19006KT 01/M05 A3029 RMK A01 T00101051  RH  064%=      5-min Rain = 0
KAHS 201508Z 18006KT 01/M05 A3029 RMK A01 T00111049  RH  064%=      5-min Rain = 0
KAHS 201509Z 20007KT 01/M05 A3029 RMK A01 T00121050  RH  063%=      5-min Rain = 0
KAHS 201510Z 20006KT 01/M05 A3029 RMK A01 T00111053  RH  062%=      5-min Rain = 0
KAHS 201511Z 19007KT 01/M05 A3029 RMK A01 T00121052  RH  062%=      5-min Rain = 0
KAHS 201512Z 19006KT 01/M05 A3029 RMK A01 T00121053  RH  062%=      5-min Rain = 0
KAHS 201513Z 19005KT 01/M05 A3029 RMK A01 T00141050  RH  062%=      5-min Rain = 0
KAHS 201514Z 19006KT 02/M05 A3029 RMK A01 T00151048  RH  063%=      5-min Rain = 0
KAHS 201515Z 18007KT 02/M05 A3029 RMK A01 T00161050  RH  062%=      5-min Rain = 0
KAHS 201516Z 20006KT 02/M05 A3029 RMK A01 T00171049  RH  062%=      5-min Rain = 0
KAHS 201517Z 20006KT 02/M05 A3029 RMK A01 T00171048  RH  062%=      5-min Rain = 0
KAHS 201518Z 21007KT 02/M05 A3029 RMK A01 T00181047  RH  062%=      5-min Rain = 0
KAHS 201519Z 20007KT 02/M05 A3029 RMK A01 T00171050  RH  061%=      5-min Rain = 0
KAHS 201520Z 21006KT 02/M05 A3029 RMK A01 T00171049  RH  061%=      5-min Rain = 0
KAHS 201521Z 21005KT 02/M05 A3029 RMK A01 T00181049  RH  061%=      5-min Rain = 0
KAHS 201522Z 20005KT 02/M05 A3029 RMK A01 T00191047  RH  062%=      5-min Rain = 0
KAHS 201523Z 19006KT 02/M05 A3029 RMK A01 T00201046  RH  062%=      5-min Rain = 0
KAHS 201524Z 20008KT 02/M05 A3028 RMK A01 T00201048  RH  061%=      5-min Rain = 0
KAHS 201525Z 20007KT 02/M05 A3028 RMK A01 T00201049  RH  060%=      5-min Rain = 0
KAHS 201526Z 19007KT 02/M05 A3028 RMK A01 T00201049  RH  060%=      5-min Rain = 0
KAHS 201527Z 18007KT 02/M05 A3028 RMK A01 T00201049  RH  060%=      5-min Rain = 0
KAHS 201528Z 19006KT 02/M05 A3028 RMK A01 T00201049  RH  060%=      5-min Rain = 0
KAHS 201529Z 20005KT 02/M05 A3028 RMK A01 T00221047  RH  060%=      5-min Rain = 0
KAHS 201530Z 20005KT 02/M05 A3028 RMK A01 T00231047  RH  060%=      5-min Rain = 0
KAHS 201531Z 19005KT 03/M04 A3028 RMK A01 T00251044  RH  060%=      5-min Rain = 0
KAHS 201532Z 19006KT 03/M04 A3028 RMK A01 T00261044  RH  060%=      5-min Rain = 0
KAHS 201533Z 19007KT 03/M05 A3028 RMK A01 T00251048  RH  059%=      5-min Rain = 0
KAHS 201534Z 20005KT 02/M05 A3028 RMK A01 T00241049  RH  059%=      5-min Rain = 0
KAHS 201535Z 18005KT 03/M04 A3028 RMK A01 T00261044  RH  060%=      5-min Rain = 0
KAHS 201536Z 18007KT 03/M05 A3028 RMK A01 T00261046  RH  059%=      5-min Rain = 0
KAHS 201537Z 18005KT 03/M05 A3028 RMK A01 T00261047  RH  059%=      5-min Rain = 0
KAHS 201538Z 19007KT 03/M05 A3028 RMK A01 T00271045  RH  059%=      5-min Rain = 0
KAHS 201539Z 18007KT 03/M05 A3028 RMK A01 T00261048  RH  058%=      5-min Rain = 0
KAHS 201540Z 17006KT 03/M05 A3028 RMK A01 T00251049  RH  058%=      5-min Rain = 0
KAHS 201541Z 17006KT 03/M05 A3028 RMK A01 T00261048  RH  058%=      5-min Rain = 0
KAHS 201542Z 18006KT 03/M05 A3028 RMK A01 T00261047  RH  058%=      5-min Rain = 0
KAHS 201543Z 17006KT 03/M05 A3028 RMK A01 T00261047  RH  059%=      5-min Rain = 0
KAHS 201544Z 18007KT 03/M05 A3028 RMK A01 T00271046  RH  059%=      5-min Rain = 0
KAHS 201545Z 17005KT 03/M05 A3028 RMK A01 T00281046  RH  058%=      5-min Rain = 0
KAHS 201546Z 16007KT 03/M05 A3028 RMK A01 T00291045  RH  058%=      5-min Rain = 0
KAHS 201547Z 17006KT 03/M05 A3028 RMK A01 T00291048  RH  057%=      5-min Rain = 0
KAHS 201548Z 18007KT 03/M05 A3028 RMK A01 T00291047  RH  057%=      5-min Rain = 0
KAHS 201549Z 17007KT 03/M05 A3028 RMK A01 T00281046  RH  058%=      5-min Rain = 0
KAHS 201550Z 19006KT 03/M04 A3028 RMK A01 T00301044  RH  058%=      5-min Rain = 0
KAHS 201551Z 18006KT 03/M04 A3028 RMK A01 T00311043  RH  058%=      5-min Rain = 0
KAHS 201552Z 16007KT 03/M05 A3028 RMK A01 T00301046  RH  057%=      5-min Rain = 0
KAHS 201553Z 17008KT 03/M05 A3028 RMK A01 T00301047  RH  057%=      5-min Rain = 0
KAHS 201554Z 18007KT 03/M05 A3028 RMK A01 T00301046  RH  057%=      5-min Rain = 0
KAHS 201555Z 20005KT 03/M04 A3028 RMK A01 T00311043  RH  058%=      5-min Rain = 0
KAHS 201556Z 20007KT 03/M04 A3028 RMK A01 T00331042  RH  058%=      5-min Rain = 0
KAHS 201557Z 20006KT 03/M04 A3028 RMK A01 T00331044  RH  057%=      5-min Rain = 0
KAHS 201558Z 21006KT 03/M04 A3028 RMK A01 T00341043  RH  057%=      5-min Rain = 0
KAHS 201559Z 18006KT 03/M04 A3028 RMK A01 T00341043  RH  057%=      5-min Rain = 0
KAHS 201600Z 19006KT 04/M04 A3028 RMK A01 T00351043  RH  057%=      5-min Rain = 0
KAHS 201601Z 20006KT 04/M04 A3028 RMK A01 T00351043  RH  057%=      5-min Rain = 0
KAHS 201602Z 18006KT 04/M04 A3028 RMK A01 T00351043  RH  057%=      5-min Rain = 0
KAHS 201603Z 17006KT 04/M04 A3028 RMK A01 T00361041  RH  057%=      5-min Rain = 0
KAHS 201604Z 19006KT 04/M04 A3028 RMK A01 T00391038  RH  057%=      5-min Rain = 0
KAHS 201605Z 19006KT 04/M04 A3028 RMK A01 T00391041  RH  056%=      5-min Rain = 0
KAHS 201606Z 20005KT 04/M04 A3028 RMK A01 T00391042  RH  056%=      5-min Rain = 0
KAHS 201607Z 19005KT 04/M04 A3028 RMK A01 T00391040  RH  056%=      5-min Rain = 0
KAHS 201608Z 20005KT 04/M04 A3028 RMK A01 T00391042  RH  055%=      5-min Rain = 0
KAHS 201609Z 21006KT 04/M04 A3028 RMK A01 T00401041  RH  056%=      5-min Rain = 0
KAHS 201610Z 21006KT 04/M04 A3028 RMK A01 T00391042  RH  055%=      5-min Rain = 0
KAHS 201611Z 20006KT 04/M04 A3028 RMK A01 T00391043  RH  055%=      5-min Rain = 0
KAHS 201612Z 21005KT 04/M04 A3028 RMK A01 T00381043  RH  055%=      5-min Rain = 0
KAHS 201613Z 21004KT 04/M04 A3028 RMK A01 T00401041  RH  056%=      5-min Rain = 0
KAHS 201614Z 21004KT 04/M04 A3028 RMK A01 T00411041  RH  055%=      5-min Rain = 0
KAHS 201615Z 23004KT 04/M04 A3028 RMK A01 T00411042  RH  055%=      5-min Rain = 0
KAHS 201616Z 24003KT 04/M04 A3028 RMK A01 T00411043  RH  055%=      5-min Rain = 0
KAHS 201617Z 20002KT 04/M04 A3028 RMK A01 T00411042  RH  055%=      5-min Rain = 0
KAHS 201618Z 19003KT 04/M04 A3028 RMK A01 T00411041  RH  055%=      5-min Rain = 0
KAHS 201619Z 19003KT 04/M04 A3028 RMK A01 T00431039  RH  055%=      5-min Rain = 0
KAHS 201620Z 17004KT 04/M04 A3028 RMK A01 T00441040  RH  054%=      5-min Rain = 0
KAHS 201621Z 16003KT 05/M04 A3028 RMK A01 T00461041  RH  053%=      5-min Rain = 0
KAHS 201622Z 23002KT 05/M04 A3028 RMK A01 T00471041  RH  053%=      5-min Rain = 0
KAHS 201623Z 22003KT 05/M04 A3028 RMK A01 T00461042  RH  053%=      5-min Rain = 0
KAHS 201624Z 22003KT 05/M04 A3028 RMK A01 T00461041  RH  053%=      5-min Rain = 0
KAHS 201625Z 23001KT 05/M04 A3028 RMK A01 T00461042  RH  053%=      5-min Rain = 0
KAHS 201626Z 22002KT 05/M04 A3028 RMK A01 T00471040  RH  054%=      5-min Rain = 0
KAHS 201627Z 22002KT 05/M04 A3028 RMK A01 T00471039  RH  053%=      5-min Rain = 0
KAHS 201628Z 20003KT 05/M04 A3027 RMK A01 T00491037  RH  054%=      5-min Rain = 0
KAHS 201629Z 21001KT 05/M04 A3027 RMK A01 T00501038  RH  053%=      5-min Rain = 0
KAHS 201630Z 21001KT 05/M04 A3027 RMK A01 T00521038  RH  052%=      5-min Rain = 0
KAHS 201631Z 22002KT 05/M04 A3027 RMK A01 T00531037  RH  052%=      5-min Rain = 0
KAHS 201632Z 20003KT 05/M04 A3027 RMK A01 T00541035  RH  053%=      5-min Rain = 0
KAHS 201633Z 20002KT 06/M03 A3027 RMK A01 T00561034  RH  052%=      5-min Rain = 0
KAHS 201634Z 19001KT 06/M03 A3027 RMK A01 T00581033  RH  052%=      5-min Rain = 0
KAHS 201635Z 18004KT 06/M04 A3027 RMK A01 T00591036  RH  051%=      5-min Rain = 0
KAHS 201636Z 21004KT 06/M04 A3027 RMK A01 T00591035  RH  051%=      5-min Rain = 0
KAHS 201637Z 20004KT 06/M04 A3027 RMK A01 T00581035  RH  051%=      5-min Rain = 0
KAHS 201638Z 18004KT 06/M04 A3027 RMK A01 T00581036  RH  051%=      5-min Rain = 0
KAHS 201639Z 18005KT 06/M03 A3027 RMK A01 T00591034  RH  051%=      5-min Rain = 0
KAHS 201640Z 17004KT 06/M04 A3027 RMK A01 T00601035  RH  050%=      5-min Rain = 0
KAHS 201641Z 16004KT 06/M03 A3027 RMK A01 T00611034  RH  051%=      5-min Rain = 0
KAHS 201642Z 17005KT 06/M03 A3027 RMK A01 T00631032  RH  050%=      5-min Rain = 0
KAHS 201643Z 19004KT 06/M03 A3027 RMK A01 T00641034  RH  050%=      5-min Rain = 0
KAHS 201644Z 21003KT 06/M04 A3027 RMK A01 T00641035  RH  049%=      5-min Rain = 0
KAHS 201645Z 17003KT 07/M03 A3027 RMK A01 T00661031  RH  050%=      5-min Rain = 0
KAHS 201646Z 18005KT 07/M03 A3027 RMK A01 T00691029  RH  050%=      5-min Rain = 0
KAHS 201647Z 17006KT 07/M03 A3027 RMK A01 T00681034  RH  048%=      5-min Rain = 0
KAHS 201648Z 17006KT 07/M04 A3027 RMK A01 T00661037  RH  048%=      5-min Rain = 0
KAHS 201649Z 16007KT 07/M03 A3027 RMK A01 T00671033  RH  049%=      5-min Rain = 0
KAHS 201650Z 16007KT 07/M03 A3027 RMK A01 T00671034  RH  048%=      5-min Rain = 0
KAHS 201651Z 16007KT 07/M03 A3027 RMK A01 T00681033  RH  048%=      5-min Rain = 0
KAHS 201652Z 17007KT 07/M03 A3027 RMK A01 T00701031  RH  049%=      5-min Rain = 0
KAHS 201653Z 17006KT 07/M03 A3027 RMK A01 T00711030  RH  048%=      5-min Rain = 0
KAHS 201654Z 17007KT 07/M03 A3026 RMK A01 T00731030  RH  048%=      5-min Rain = 0
KAHS 201655Z 18009KT 07/M03 A3026 RMK A01 T00721034  RH  047%=      5-min Rain = 0
KAHS 201656Z 17007KT 07/M03 A3026 RMK A01 T00711034  RH  047%=      5-min Rain = 0
KAHS 201657Z 16007KT 07/M03 A3026 RMK A01 T00721033  RH  047%=      5-min Rain = 0
KAHS 201658Z 16007KT 07/M03 A3026 RMK A01 T00731032  RH  047%=      5-min Rain = 0
KAHS 201659Z 17007KT 07/M03 A3026 RMK A01 T00741030  RH  047%=      5-min Rain = 0
KAHS 201700Z 17008KT 08/M03 A3026 RMK A01 T00761029  RH  047%=      5-min Rain = 0
KAHS 201701Z 17008KT 08/M03 A3026 RMK A01 T00761031  RH  046%=      5-min Rain = 0
KAHS 201702Z 19007KT 08/M03 A3026 RMK A01 T00751033  RH  046%=      5-min Rain = 0
KAHS 201703Z 17006KT 08/M03 A3026 RMK A01 T00771026  RH  048%=      5-min Rain = 0
KAHS 201704Z 19008KT 08/M03 A3026 RMK A01 T00781029  RH  047%=      5-min Rain = 0
KAHS 201705Z 19008KT 08/M03 A3026 RMK A01 T00761031  RH  047%=      5-min Rain = 0
KAHS 201706Z 20008KT 08/M03 A3026 RMK A01 T00761031  RH  047%=      5-min Rain = 0
KAHS 201707Z 19006KT 08/M03 A3026 RMK A01 T00751031  RH  047%=      5-min Rain = 0
KAHS 201708Z 18006KT 08/M03 A3026 RMK A01 T00781026  RH  048%=      5-min Rain = 0
KAHS 201709Z 19009KT 08/M03 A3026 RMK A01 T00811026  RH  047%=      5-min Rain = 0
KAHS 201710Z 20010KT 08/M03 A3026 RMK A01 T00841025  RH  046%=      5-min Rain = 0
KAHS 201711Z 21008KT 09/M03 A3025 RMK A01 T00851027  RH  045%=      5-min Rain = 0
KAHS 201712Z 21011KT 08/M03 A3025 RMK A01 T00841028  RH  045%=      5-min Rain = 0
KAHS 201713Z 20007KT 08/M03 A3025 RMK A01 T00841028  RH  045%=      5-min Rain = 0
KAHS 201714Z 19008KT 09/M02 A3025 RMK A01 T00871023  RH  046%=      5-min Rain = 0
KAHS 201715Z 19009KT 09/M02 A3025 RMK A01 T00891024  RH  045%=      5-min Rain = 0
KAHS 201716Z 19009KT 09/M03 A3025 RMK A01 T00891026  RH  045%=      5-min Rain = 0
KAHS 201717Z 19011KT 09/M03 A3025 RMK A01 T00881027  RH  044%=      5-min Rain = 0
KAHS 201718Z 21010KT 09/M03 A3025 RMK A01 T00861029  RH  044%=      5-min Rain = 0
KAHS 201719Z 21008KT 09/M03 A3025 RMK A01 T00851029  RH  044%=      5-min Rain = 0
KAHS 201720Z 22008KT 09/M03 A3025 RMK A01 T00861028  RH  044%=      5-min Rain = 0
KAHS 201721Z 22008KT 09/M03 A3025 RMK A01 T00871027  RH  045%=      5-min Rain = 0
KAHS 201722Z 20007KT 09/M03 A3025 RMK A01 T00881027  RH  044%=      5-min Rain = 0
KAHS 201723Z 20008KT 09/M02 A3025 RMK A01 T00901024  RH  045%=      5-min Rain = 0
KAHS 201724Z 21011KT 09/M03 A3025 RMK A01 T00911026  RH  044%=      5-min Rain = 0
KAHS 201725Z 22012KT 09/M03 A3025 RMK A01 T00901029  RH  043%=      5-min Rain = 0
KAHS 201726Z 21010KT 09/M03 A3025 RMK A01 T00881031  RH  043%=      5-min Rain = 0
KAHS 201727Z 21010KT 09/M03 A3025 RMK A01 T00891027  RH  044%=      5-min Rain = 0
KAHS 201728Z 22009KT 09/M03 A3025 RMK A01 T00891028  RH  044%=      5-min Rain = 0
KAHS 201729Z 22008KT 09/M03 A3025 RMK A01 T00891027  RH  044%=      5-min Rain = 0
KAHS 201730Z 22008KT 09/M03 A3025 RMK A01 T00901027  RH  044%=      5-min Rain = 0
KAHS 201731Z 23009KT 09/M03 A3025 RMK A01 T00901028  RH  044%=      5-min Rain = 0
KAHS 201732Z 21006KT 09/M03 A3025 RMK A01 T00891027  RH  044%=      5-min Rain = 0
KAHS 201733Z 22008KT 09/M03 A3024 RMK A01 T00891027  RH  044%=      5-min Rain = 0
KAHS 201734Z 22010KT 09/M03 A3024 RMK A01 T00891026  RH  044%=      5-min Rain = 0
KAHS 201735Z 23008KT 09/M03 A3024 RMK A01 T00891026  RH  044%=      5-min Rain = 0
KAHS 201736Z 22008KT 09/M02 A3024 RMK A01 T00891023  RH  045%=      5-min Rain = 0
KAHS 201737Z 23010KT 09/M02 A3024 RMK A01 T00921023  RH  044%=      5-min Rain = 0
KAHS 201738Z 23007KT 09/M03 A3024 RMK A01 T00911026  RH  044%=      5-min Rain = 0
KAHS 201739Z 22008KT 09/M03 A3024 RMK A01 T00921025  RH  044%=      5-min Rain = 0
KAHS 201740Z 22006KT 09/M02 A3024 RMK A01 T00931023  RH  044%=      5-min Rain = 0
KAHS 201741Z 23007G13KT 10/M02 A3024 RMK A01 T00971017  RH  045%=      5-min Rain = 0
KAHS 201742Z 23010KT 10/M02 A3024 RMK A01 T00961023  RH  043%=      5-min Rain = 0
KAHS 201743Z 21009KT 09/M03 A3024 RMK A01 T00931028  RH  043%=      5-min Rain = 0
KAHS 201744Z 22009KT 09/M02 A3024 RMK A01 T00931024  RH  044%=      5-min Rain = 0
KAHS 201745Z 21010KT 10/M02 A3024 RMK A01 T00971021  RH  044%=      5-min Rain = 0
KAHS 201746Z 21010KT 10/M03 A3024 RMK A01 T00951027  RH  042%=      5-min Rain = 0
KAHS 201747Z 21009KT 10/M03 A3024 RMK A01 T00951025  RH  043%=      5-min Rain = 0
KAHS 201748Z 20009KT 10/M03 A3024 RMK A01 T00951025  RH  043%=      5-min Rain = 0
KAHS 201749Z 21007KT 10/M02 A3024 RMK A01 T00961022  RH  043%=      5-min Rain = 0
KAHS 201750Z 19010KT 10/M02 A3024 RMK A01 T01001017  RH  044%=      5-min Rain = 0
KAHS 201751Z 20010KT 10/M02 A3024 RMK A01 T01001023  RH  042%=      5-min Rain = 0
KAHS 201752Z 20009KT 10/M02 A3024 RMK A01 T00991022  RH  043%=      5-min Rain = 0
KAHS 201753Z 21009KT 10/M02 A3024 RMK A01 T01011020  RH  043%=      5-min Rain = 0
KAHS 201754Z 22010KT 10/M02 A3023 RMK A01 T01001023  RH  042%=      5-min Rain = 0
KAHS 201755Z 23011KT 10/M02 A3023 RMK A01 T01021020  RH  043%=      5-min Rain = 0
KAHS 201756Z 22012KT 10/M02 A3023 RMK A01 T01021022  RH  042%=      5-min Rain = 0
KAHS 201757Z 22010KT 10/M02 A3023 RMK A01 T01011023  RH  042%=      5-min Rain = 0
KAHS 201758Z 22009KT 10/M02 A3023 RMK A01 T01021021  RH  042%=      5-min Rain = 0
KAHS 201759Z 20008KT 11/M02 A3023 RMK A01 T01051017  RH  043%=      5-min Rain = 0
KAHS 201800Z 22010KT 10/M02 A3023 RMK A01 T01041021  RH  041%=      5-min Rain = 0
KAHS 201801Z 22010KT 10/M02 A3023 RMK A01 T01031023  RH  041%=      5-min Rain = 0
KAHS 201802Z 23012KT 10/M02 A3023 RMK A01 T01021023  RH  042%=      5-min Rain = 0
KAHS 201803Z 22011KT 10/M03 A3023 RMK A01 T01001025  RH  041%=      5-min Rain = 0
KAHS 201804Z 22012KT 10/M02 A3023 RMK A01 T01001023  RH  042%=      5-min Rain = 0
KAHS 201805Z 23013KT 10/M02 A3023 RMK A01 T01001024  RH  042%=      5-min Rain = 0
KAHS 201806Z 23013KT 10/M03 A3022 RMK A01 T00991026  RH  041%=      5-min Rain = 0
KAHS 201807Z 21010KT 10/M02 A3023 RMK A01 T01001024  RH  042%=      5-min Rain = 0
KAHS 201808Z 23009KT 10/M02 A3023 RMK A01 T01031020  RH  042%=      5-min Rain = 0
KAHS 201809Z 23011KT 10/M02 A3022 RMK A01 T01041021  RH  041%=      5-min Rain = 0
KAHS 201810Z 23011KT 10/M02 A3022 RMK A01 T01031024  RH  041%=      5-min Rain = 0
KAHS 201811Z 23012KT 10/M02 A3022 RMK A01 T01031022  RH  041%=      5-min Rain = 0
KAHS 201812Z 24013KT 10/M02 A3022 RMK A01 T01031024  RH  041%=      5-min Rain = 0
KAHS 201813Z 23013KT 10/M02 A3022 RMK A01 T01011024  RH  041%=      5-min Rain = 0
KAHS 201814Z 24011KT 10/M02 A3022 RMK A01 T01021023  RH  042%=      5-min Rain = 0
KAHS 201815Z 22011KT 10/M02 A3022 RMK A01 T01031021  RH  042%=      5-min Rain = 0
KAHS 201816Z 22010KT 10/M02 A3022 RMK A01 T01031022  RH  041%=      5-min Rain = 0
KAHS 201817Z 22009KT 11/M02 A3022 RMK A01 T01061017  RH  042%=      5-min Rain = 0
KAHS 201818Z 22008KT 11/M02 A3022 RMK A01 T01081017  RH  042%=      5-min Rain = 0
KAHS 201819Z 23012KT 11/M02 A3022 RMK A01 T01101018  RH  041%=      5-min Rain = 0
KAHS 201820Z 22008KT 11/M02 A3022 RMK A01 T01061023  RH  040%=      5-min Rain = 0
KAHS 201821Z 23010KT 11/M02 A3022 RMK A01 T01061020  RH  041%=      5-min Rain = 0
KAHS 201822Z 23012KT 11/M02 A3022 RMK A01 T01061021  RH  041%=      5-min Rain = 0
KAHS 201823Z 23010KT 11/M02 A3022 RMK A01 T01061022  RH  041%=      5-min Rain = 0
KAHS 201824Z 24011KT 11/M02 A3022 RMK A01 T01071022  RH  041%=      5-min Rain = 0
KAHS 201825Z 24011KT 11/M02 A3022 RMK A01 T01071020  RH  041%=      5-min Rain = 0
KAHS 201826Z 22011KT 11/M02 A3022 RMK A01 T01091019  RH  041%=      5-min Rain = 0
KAHS 201827Z 22010KT 11/M02 A3022 RMK A01 T01091020  RH  041%=      5-min Rain = 0
KAHS 201828Z 22010KT 11/M02 A3022 RMK A01 T01091022  RH  040%=      5-min Rain = 0
KAHS 201829Z 23007KT 11/M02 A3022 RMK A01 T01081021  RH  041%=      5-min Rain = 0
KAHS 201830Z 23010KT 11/M02 A3021 RMK A01 T01101017  RH  041%=      5-min Rain = 0
KAHS 201831Z 23009KT 11/M02 A3021 RMK A01 T01111017  RH  041%=      5-min Rain = 0
KAHS 201832Z 22008KT 11/M01 A3021 RMK A01 T01141014  RH  041%=      5-min Rain = 0
KAHS 201833Z 22010KT 11/M02 A3021 RMK A01 T01121019  RH  040%=      5-min Rain = 0
KAHS 201834Z 21010KT 11/M02 A3021 RMK A01 T01111019  RH  040%=      5-min Rain = 0
KAHS 201835Z 21010KT 11/M02 A3021 RMK A01 T01111019  RH  040%=      5-min Rain = 0
KAHS 201836Z 22010KT 11/M02 A3021 RMK A01 T01131017  RH  040%=      5-min Rain = 0
KAHS 201837Z 22011KT 11/M02 A3021 RMK A01 T01121019  RH  040%=      5-min Rain = 0
KAHS 201838Z 22009KT 11/M02 A3021 RMK A01 T01131018  RH  040%=      5-min Rain = 0
KAHS 201839Z 22009KT 12/M02 A302 RMK A01 T01161015  RH  040%=      5-min Rain = 0
KAHS 201840Z 23009KT 12/M02 A302 RMK A01 T01161016  RH  040%=      5-min Rain = 0
KAHS 201841Z 23009KT 12/M02 A302 RMK A01 T01161016  RH  040%=      5-min Rain = 0
KAHS 201842Z 22008KT 12/M02 A302 RMK A01 T01171017  RH  039%=      5-min Rain = 0
KAHS 201843Z 22007KT 12/M02 A302 RMK A01 T01171018  RH  039%=      5-min Rain = 0
KAHS 201844Z 21010KT 12/M02 A302 RMK A01 T01171018  RH  039%=      5-min Rain = 0
KAHS 201845Z 22010KT 12/M02 A302 RMK A01 T01161019  RH  039%=      5-min Rain = 0
KAHS 201846Z 21008KT 12/M02 A302 RMK A01 T01151017  RH  040%=      5-min Rain = 0
KAHS 201847Z 22008KT 12/M01 A3019 RMK A01 T01181014  RH  040%=      5-min Rain = 0
KAHS 201848Z 22006KT 12/M01 A3019 RMK A01 T01201014  RH  039%=      5-min Rain = 0
KAHS 201849Z 21008KT 12/M01 A3019 RMK A01 T01231009  RH  040%=      5-min Rain = 0
KAHS 201850Z 20009KT 12/M01 A3019 RMK A01 T01241013  RH  039%=      5-min Rain = 0
KAHS 201851Z 21009KT 12/M02 A3019 RMK A01 T01221016  RH  038%=      5-min Rain = 0
KAHS 201852Z 22011KT 12/M02 A3019 RMK A01 T01211016  RH  038%=      5-min Rain = 0
KAHS 201853Z 22008KT 12/M02 A3019 RMK A01 T01201017  RH  039%=      5-min Rain = 0
KAHS 201854Z 22012KT 12/M02 A3019 RMK A01 T01201018  RH  038%=      5-min Rain = 0
KAHS 201855Z 23011KT 12/M02 A3019 RMK A01 T01191019  RH  038%=      5-min Rain = 0
KAHS 201856Z 21010KT 12/M02 A3019 RMK A01 T01181017  RH  039%=      5-min Rain = 0
KAHS 201857Z 22011KT 12/M02 A3018 RMK A01 T01211016  RH  039%=      5-min Rain = 0
KAHS 201858Z 22011KT 12/M02 A3018 RMK A01 T01201017  RH  038%=      5-min Rain = 0
KAHS 201859Z 22011KT 12/M02 A3018 RMK A01 T01211015  RH  039%=      5-min Rain = 0
KAHS 201900Z 21013KT 12/M02 A3018 RMK A01 T01221016  RH  038%=      5-min Rain = 0
KAHS 201901Z 21012KT 12/M02 A3018 RMK A01 T01211017  RH  038%=      5-min Rain = 0
KAHS 201902Z 21010KT 12/M02 A3018 RMK A01 T01211016  RH  039%=      5-min Rain = 0
KAHS 201903Z 22012KT 12/M02 A3018 RMK A01 T01231016  RH  038%=      5-min Rain = 0
KAHS 201904Z 22012KT 12/M02 A3018 RMK A01 T01231015  RH  038%=      5-min Rain = 0
KAHS 201905Z 23011KT 12/M02 A3018 RMK A01 T01241015  RH  038%=      5-min Rain = 0
KAHS 201906Z 22010KT 12/M02 A3018 RMK A01 T01231018  RH  038%=      5-min Rain = 0
KAHS 201907Z 21009KT 12/M02 A3018 RMK A01 T01221017  RH  038%=      5-min Rain = 0
KAHS 201908Z 21010KT 12/M02 A3018 RMK A01 T01221015  RH  039%=      5-min Rain = 0
KAHS 201909Z 20010KT 12/M01 A3018 RMK A01 T01231014  RH  039%=      5-min Rain = 0
KAHS 201910Z 21007KT 12/M02 A3018 RMK A01 T01221015  RH  038%=      5-min Rain = 0
KAHS 201911Z 19007KT 12/M01 A3018 RMK A01 T01221014  RH  039%=      5-min Rain = 0
KAHS 201912Z 22008KT 12/M01 A3018 RMK A01 T01221014  RH  039%=      5-min Rain = 0
KAHS 201913Z 21011KT 12/M01 A3018 RMK A01 T01241012  RH  039%=      5-min Rain = 0
KAHS 201914Z 21009KT 13/M01 A3018 RMK A01 T01271013  RH  038%=      5-min Rain = 0
KAHS 201915Z 22008KT 13/M01 A3018 RMK A01 T01291010  RH  038%=      5-min Rain = 0
KAHS 201916Z 21010KT 13/M01 A3018 RMK A01 T01321009  RH  038%=      5-min Rain = 0
KAHS 201917Z 22012KT 13/M01 A3018 RMK A01 T01341010  RH  037%=      5-min Rain = 0
KAHS 201918Z 22009KT 13/M01 A3017 RMK A01 T01321013  RH  037%=      5-min Rain = 0
KAHS 201919Z 21008KT 13/M01 A3017 RMK A01 T01311013  RH  037%=      5-min Rain = 0
KAHS 201920Z 23007KT 13/M01 A3017 RMK A01 T01291013  RH  037%=      5-min Rain = 0
KAHS 201921Z 22007KT 13/M01 A3017 RMK A01 T01301011  RH  038%=      5-min Rain = 0
KAHS 201922Z 22008KT 13/M01 A3017 RMK A01 T01311009  RH  038%=      5-min Rain = 0
KAHS 201923Z 21008KT 13/M01 A3017 RMK A01 T01301013  RH  037%=      5-min Rain = 0
KAHS 201924Z 21008KT 13/M01 A3017 RMK A01 T01291013  RH  037%=      5-min Rain = 0
KAHS 201925Z 22006KT 13/M01 A3017 RMK A01 T01291011  RH  038%=      5-min Rain = 0
KAHS 201926Z 23009KT 13/M01 A3016 RMK A01 T01311010  RH  038%=      5-min Rain = 0
KAHS 201927Z 21009KT 13/M01 A3016 RMK A01 T01301012  RH  037%=      5-min Rain = 0
KAHS 201928Z 20006KT 13/M01 A3016 RMK A01 T01321008  RH  038%=      5-min Rain = 0
KAHS 201929Z 21008KT 13/M01 A3016 RMK A01 T01331009  RH  038%=      5-min Rain = 0
KAHS 201930Z 21009KT 13/M01 A3016 RMK A01 T01331011  RH  037%=      5-min Rain = 0
KAHS 201931Z 22008KT 13/M01 A3016 RMK A01 T01331011  RH  037%=      5-min Rain = 0
KAHS 201932Z 21008KT 13/M01 A3016 RMK A01 T01341010  RH  037%=      5-min Rain = 0
KAHS 201933Z 22008KT 14/M01 A3016 RMK A01 T01361005  RH  038%=      5-min Rain = 0
KAHS 201934Z 22008KT 14/M01 A3016 RMK A01 T01351009  RH  037%=      5-min Rain = 0
KAHS 201935Z 21006KT 14/M01 A3015 RMK A01 T01361007  RH  037%=      5-min Rain = 0
KAHS 201936Z 22010KT 14/M01 A3015 RMK A01 T01381006  RH  037%=      5-min Rain = 0
KAHS 201937Z 22010KT 14/M01 A3015 RMK A01 T01371012  RH  036%=      5-min Rain = 0
KAHS 201938Z 21011KT 14/M01 A3015 RMK A01 T01351013  RH  036%=      5-min Rain = 0
KAHS 201939Z 22009KT 14/M01 A3015 RMK A01 T01361009  RH  037%=      5-min Rain = 0
KAHS 201940Z 22011KT 14/M01 A3015 RMK A01 T01361012  RH  036%=      5-min Rain = 0
KAHS 201941Z 21008KT 14/M01 A3015 RMK A01 T01351012  RH  036%=      5-min Rain = 0
KAHS 201942Z 22010KT 14/M01 A3015 RMK A01 T01361010  RH  036%=      5-min Rain = 0
KAHS 201943Z 21007KT 14/M01 A3015 RMK A01 T01371011  RH  036%=      5-min Rain = 0
KAHS 201944Z 20010KT 14/M01 A3015 RMK A01 T01381009  RH  036%=      5-min Rain = 0
KAHS 201945Z 22009KT 14/M01 A3015 RMK A01 T01381012  RH  035%=      5-min Rain = 0
KAHS 201946Z 21008KT 14/M01 A3015 RMK A01 T01391011  RH  036%=      5-min Rain = 0
KAHS 201947Z 22006KT 14/M01 A3015 RMK A01 T01411009  RH  036%=      5-min Rain = 0
KAHS 201948Z 21007KT 14/M01 A3015 RMK A01 T01421009  RH  035%=      5-min Rain = 0
KAHS 201949Z 23007KT 14/M01 A3015 RMK A01 T01431007  RH  036%=      5-min Rain = 0
KAHS 201950Z 22009KT 14/M01 A3015 RMK A01 T01421011  RH  035%=      5-min Rain = 0
KAHS 201951Z 21006KT 14/M01 A3015 RMK A01 T01421012  RH  035%=      5-min Rain = 0
KAHS 201952Z 20007KT 15/M01 A3014 RMK A01 T01451005  RH  036%=      5-min Rain = 0
KAHS 201953Z 21008KT 15/M01 A3014 RMK A01 T01481006  RH  035%=      5-min Rain = 0
KAHS 201954Z 21007KT 15/M01 A3014 RMK A01 T01481010  RH  034%=      5-min Rain = 0
KAHS 201955Z 20006KT 15/M01 A3014 RMK A01 T01491011  RH  033%=      5-min Rain = 0
KAHS 201956Z 21010KT 15/M01 A3014 RMK A01 T01501009  RH  033%=      5-min Rain = 0
KAHS 201957Z 22008KT 15/M01 A3014 RMK A01 T01521009  RH  033%=      5-min Rain = 0
KAHS 201958Z 21008KT 16/M00 A3014 RMK A01 T01561003  RH  034%=      5-min Rain = 0
KAHS 201959Z 23011KT 16/M01 A3013 RMK A01 T01581006  RH  033%=      5-min Rain = 0
KAHS 202000Z 22009KT 15/M02 A3014 RMK A01 T01541015  RH  031%=      5-min Rain = 0
KAHS 202001Z 22012KT 15/M01 A3014 RMK A01 T01541013  RH  032%=      5-min Rain = 0
KAHS 202002Z 21010KT 15/M01 A3014 RMK A01 T01541014  RH  032%=      5-min Rain = 0
KAHS 202003Z 21008KT 15/M02 A3014 RMK A01 T01541017  RH  031%=      5-min Rain = 0
KAHS 202004Z 22008KT 15/M01 A3014 RMK A01 T01541014  RH  032%=      5-min Rain = 0
KAHS 202005Z 23007KT 16/M01 A3014 RMK A01 T01561009  RH  033%=      5-min Rain = 0
KAHS 202006Z 24007KT 16/M01 A3014 RMK A01 T01561009  RH  032%=      5-min Rain = 0
KAHS 202007Z 23006KT 15/M01 A3014 RMK A01 T01541014  RH  032%=      5-min Rain = 0
KAHS 202008Z 23006KT 15/M02 A3014 RMK A01 T01531016  RH  031%=      5-min Rain = 0
KAHS 202009Z 23009KT 15/M01 A3014 RMK A01 T01541014  RH  032%=      5-min Rain = 0
KAHS 202010Z 23008KT 15/M02 A3014 RMK A01 T01531020  RH  030%=      5-min Rain = 0
KAHS 202011Z 23010KT 16/M02 A3013 RMK A01 T01551018  RH  031%=      5-min Rain = 0
KAHS 202012Z 24008KT 16/M02 A3013 RMK A01 T01551021  RH  030%=      5-min Rain = 0
KAHS 202013Z 23008KT 16/M02 A3013 RMK A01 T01551020  RH  030%=      5-min Rain = 0
KAHS 202014Z 22009KT 15/M02 A3013 RMK A01 T01541021  RH  030%=      5-min Rain = 0
KAHS 202015Z 23010KT 15/M02 A3013 RMK A01 T01541021  RH  030%=      5-min Rain = 0
KAHS 202016Z 21011KT 16/M02 A3013 RMK A01 T01551021  RH  030%=      5-min Rain = 0
KAHS 202017Z 22013KT 16/M02 A3013 RMK A01 T01561022  RH  029%=      5-min Rain = 0
KAHS 202018Z 22011KT 16/M02 A3013 RMK A01 T01551024  RH  029%=      5-min Rain = 0
KAHS 202019Z 21012KT 16/M02 A3013 RMK A01 T01551023  RH  029%=      5-min Rain = 0
KAHS 202020Z 21011KT 16/M02 A3013 RMK A01 T01551022  RH  030%=      5-min Rain = 0
KAHS 202021Z 21012KT 16/M02 A3013 RMK A01 T01551023  RH  029%=      5-min Rain = 0
KAHS 202022Z 22011KT 15/M02 A3013 RMK A01 T01541023  RH  029%=      5-min Rain = 0
KAHS 202023Z 22013KT 15/M02 A3012 RMK A01 T01541024  RH  029%=      5-min Rain = 0
KAHS 202024Z 22013KT 16/M02 A3012 RMK A01 T01551024  RH  029%=      5-min Rain = 0
KAHS 202025Z 21012KT 16/M02 A3012 RMK A01 T01551024  RH  029%=      5-min Rain = 0
KAHS 202026Z 22012KT 16/M02 A3012 RMK A01 T01551023  RH  029%=      5-min Rain = 0
KAHS 202027Z 22012KT 16/M02 A3012 RMK A01 T01561021  RH  030%=      5-min Rain = 0
KAHS 202028Z 21012KT 16/M02 A3012 RMK A01 T01561024  RH  029%=      5-min Rain = 0
KAHS 202029Z 21010G15KT 16/M02 A3012 RMK A01 T01561023  RH  029%=      5-min Rain = 0
KAHS 202030Z 21010KT 16/M02 A3012 RMK A01 T01571019  RH  030%=      5-min Rain = 0
KAHS 202031Z 22008KT 16/M02 A3012 RMK A01 T01581019  RH  030%=      5-min Rain = 0
KAHS 202032Z 23009KT 16/M02 A3012 RMK A01 T01591019  RH  030%=      5-min Rain = 0
KAHS 202033Z 22010KT 16/M02 A3012 RMK A01 T01591017  RH  030%=      5-min Rain = 0
KAHS 202034Z 22012KT 16/M02 A3012 RMK A01 T01591021  RH  029%=      5-min Rain = 0
KAHS 202035Z 21010KT 16/M02 A3012 RMK A01 T01581022  RH  029%=      5-min Rain = 0
KAHS 202036Z 21010KT 16/M02 A3012 RMK A01 T01581021  RH  029%=      5-min Rain = 0
KAHS 202037Z 21011KT 16/M02 A3011 RMK A01 T01581022  RH  029%=      5-min Rain = 0
KAHS 202038Z 21012KT 16/M02 A3011 RMK A01 T01581022  RH  029%=      5-min Rain = 0
KAHS 202039Z 20011KT 16/M02 A3011 RMK A01 T01581022  RH  029%=      5-min Rain = 0
KAHS 202040Z 21011KT 16/M02 A3011 RMK A01 T01591023  RH  029%=      5-min Rain = 0
KAHS 202041Z 21013KT 16/M02 A3011 RMK A01 T01601024  RH  028%=      5-min Rain = 0
KAHS 202042Z 23014KT 16/M02 A3011 RMK A01 T01601023  RH  028%=      5-min Rain = 0
KAHS 202043Z 23014KT 16/M02 A3011 RMK A01 T01601024  RH  028%=      5-min Rain = 0
KAHS 202044Z 23012KT 16/M02 A3011 RMK A01 T01601023  RH  028%=      5-min Rain = 0
KAHS 202045Z 21012KT 16/M03 A3011 RMK A01 T01601025  RH  028%=      5-min Rain = 0
KAHS 202046Z 21011KT 16/M02 A3011 RMK A01 T01591023  RH  029%=      5-min Rain = 0
KAHS 202047Z 22008KT 16/M02 A3011 RMK A01 T01601021  RH  029%=      5-min Rain = 0
KAHS 202048Z 22010KT 16/M02 A3011 RMK A01 T01611017  RH  029%=      5-min Rain = 0
KAHS 202049Z 20010KT 16/M02 A3011 RMK A01 T01621020  RH  029%=      5-min Rain = 0
KAHS 202050Z 21009KT 16/M02 A3011 RMK A01 T01631018  RH  029%=      5-min Rain = 0
KAHS 202051Z 21011KT 16/M02 A3011 RMK A01 T01631022  RH  028%=      5-min Rain = 0
KAHS 202052Z 21013KT 16/M03 A3011 RMK A01 T01621027  RH  027%=      5-min Rain = 0
KAHS 202053Z 20013KT 16/M03 A3011 RMK A01 T01611026  RH  027%=      5-min Rain = 0
KAHS 202054Z 21010KT 16/M02 A3011 RMK A01 T01631024  RH  028%=      5-min Rain = 0
KAHS 202055Z 20009G14KT 16/M02 A3011 RMK A01 T01641020  RH  028%=      5-min Rain = 0
KAHS 202056Z 21012KT 17/M02 A301 RMK A01 T01651020  RH  028%=      5-min Rain = 0
KAHS 202057Z 20013KT 16/M03 A301 RMK A01 T01621026  RH  027%=      5-min Rain = 0
KAHS 202058Z 22012KT 16/M02 A301 RMK A01 T01611024  RH  028%=      5-min Rain = 0
KAHS 202059Z 23010KT 16/M02 A301 RMK A01 T01611021  RH  029%=      5-min Rain = 0
KAHS 202100Z 22010KT 16/M02 A301 RMK A01 T01631021  RH  028%=      5-min Rain = 0
KAHS 202101Z 24011KT 17/M02 A301 RMK A01 T01651019  RH  028%=      5-min Rain = 0
KAHS 202102Z 24011KT 17/M02 A301 RMK A01 T01671018  RH  028%=      5-min Rain = 0
KAHS 202103Z 21011KT 17/M02 A301 RMK A01 T01691019  RH  028%=      5-min Rain = 0
KAHS 202104Z 22012KT 17/M02 A301 RMK A01 T01681021  RH  027%=      5-min Rain = 0
KAHS 202105Z 21011KT 17/M02 A301 RMK A01 T01671023  RH  027%=      5-min Rain = 0
KAHS 202106Z 23013KT 17/M03 A301 RMK A01 T01671025  RH  027%=      5-min Rain = 0
KAHS 202107Z 23015KT 17/M03 A301 RMK A01 T01651028  RH  027%=      5-min Rain = 0
KAHS 202108Z 23013KT 17/M03 A301 RMK A01 T01651026  RH  027%=      5-min Rain = 0
KAHS 202109Z 23015KT 16/M03 A301 RMK A01 T01641027  RH  027%=      5-min Rain = 0
KAHS 202110Z 23013KT 16/M03 A301 RMK A01 T01641029  RH  027%=      5-min Rain = 0
KAHS 202111Z 24012KT 16/M03 A301 RMK A01 T01641026  RH  027%=      5-min Rain = 0
KAHS 202112Z 24011KT 16/M02 A301 RMK A01 T01641023  RH  028%=      5-min Rain = 0
KAHS 202113Z 24012KT 17/M02 A301 RMK A01 T01651022  RH  028%=      5-min Rain = 0
KAHS 202114Z 24009KT 17/M02 A301 RMK A01 T01671020  RH  028%=      5-min Rain = 0
KAHS 202115Z 23009KT 17/M02 A301 RMK A01 T01691019  RH  028%=      5-min Rain = 0
KAHS 202116Z 23010KT 17/M02 A301 RMK A01 T01711020  RH  027%=      5-min Rain = 0
KAHS 202117Z 24013KT 17/M02 A301 RMK A01 T01701022  RH  027%=      5-min Rain = 0
KAHS 202118Z 23012KT 17/M02 A301 RMK A01 T01701019  RH  027%=      5-min Rain = 0
KAHS 202119Z 23013KT 17/M02 A301 RMK A01 T01701022  RH  027%=      5-min Rain = 0
KAHS 202120Z 23012KT 17/M02 A301 RMK A01 T01691022  RH  027%=      5-min Rain = 0
KAHS 202121Z 23010KT 17/M02 A301 RMK A01 T01691021  RH  027%=      5-min Rain = 0
KAHS 202122Z 24014KT 17/M02 A301 RMK A01 T01701020  RH  027%=      5-min Rain = 0
KAHS 202123Z 23010KT 17/M02 A301 RMK A01 T01691023  RH  027%=      5-min Rain = 0
KAHS 202124Z 22009KT 17/M02 A301 RMK A01 T01701019  RH  027%=      5-min Rain = 0
KAHS 202125Z 23010KT 17/M02 A301 RMK A01 T01711019  RH  027%=      5-min Rain = 0
KAHS 202126Z 24009KT 17/M02 A301 RMK A01 T01711019  RH  027%=      5-min Rain = 0
KAHS 202127Z 22011KT 17/M02 A301 RMK A01 T01701019  RH  027%=      5-min Rain = 0
KAHS 202128Z 22011KT 17/M02 A301 RMK A01 T01681022  RH  027%=      5-min Rain = 0
KAHS 202129Z 23011KT 17/M02 A301 RMK A01 T01671020  RH  028%=      5-min Rain = 0
KAHS 202130Z 23011KT 17/M02 A301 RMK A01 T01691019  RH  028%=      5-min Rain = 0
KAHS 202131Z 22010KT 17/M02 A301 RMK A01 T01711018  RH  027%=      5-min Rain = 0
KAHS 202132Z 21012KT 17/M02 A301 RMK A01 T01721020  RH  027%=      5-min Rain = 0
KAHS 202133Z 22012KT 17/M02 A301 RMK A01 T01741018  RH  027%=      5-min Rain = 0
KAHS 202134Z 23012KT 18/M02 A301 RMK A01 T01751015  RH  027%=      5-min Rain = 0
KAHS 202135Z 22013KT 17/M02 A3009 RMK A01 T01741021  RH  026%=      5-min Rain = 0
KAHS 202136Z 23011KT 17/M02 A3009 RMK A01 T01721021  RH  027%=      5-min Rain = 0
KAHS 202137Z 23012KT 17/M02 A3009 RMK A01 T01721019  RH  027%=      5-min Rain = 0
KAHS 202138Z 24012KT 17/M02 A3009 RMK A01 T01711021  RH  027%=      5-min Rain = 0
KAHS 202139Z 23011KT 17/M02 A3009 RMK A01 T01701022  RH  027%=      5-min Rain = 0
KAHS 202140Z 23012KT 17/M02 A3009 RMK A01 T01711021  RH  027%=      5-min Rain = 0
KAHS 202141Z 23011KT 17/M02 A3009 RMK A01 T01701021  RH  027%=      5-min Rain = 0
KAHS 202142Z 23010KT 17/M02 A3009 RMK A01 T01701020  RH  027%=      5-min Rain = 0
KAHS 202143Z 22008KT 17/M02 A3009 RMK A01 T01711019  RH  027%=      5-min Rain = 0
KAHS 202144Z 23007KT 17/M02 A3009 RMK A01 T01721017  RH  028%=      5-min Rain = 0
KAHS 202145Z 21009KT 17/M02 A3009 RMK A01 T01721020  RH  027%=      5-min Rain = 0
KAHS 202146Z 20013KT 17/M02 A3009 RMK A01 T01721020  RH  027%=      5-min Rain = 0
KAHS 202147Z 19014KT 17/M02 A3009 RMK A01 T01731020  RH  027%=      5-min Rain = 0
KAHS 202148Z 21013KT 17/M02 A3009 RMK A01 T01731020  RH  027%=      5-min Rain = 0
KAHS 202149Z 22012KT 17/M02 A3009 RMK A01 T01741020  RH  027%=      5-min Rain = 0
KAHS 202150Z 22011KT 18/M02 A3009 RMK A01 T01751021  RH  026%=      5-min Rain = 0
KAHS 202151Z 22010KT 17/M02 A3009 RMK A01 T01741023  RH  026%=      5-min Rain = 0
KAHS 202152Z 21010KT 18/M02 A3009 RMK A01 T01751020  RH  026%=      5-min Rain = 0
KAHS 202153Z 21008KT 18/M02 A3009 RMK A01 T01761018  RH  027%=      5-min Rain = 0
KAHS 202154Z 21007KT 18/M02 A3009 RMK A01 T01771019  RH  026%=      5-min Rain = 0
KAHS 202155Z 21009KT 18/M02 A3009 RMK A01 T01781016  RH  027%=      5-min Rain = 0
KAHS 202156Z 22008KT 18/M02 A3009 RMK A01 T01781018  RH  026%=      5-min Rain = 0
KAHS 202157Z 21009KT 18/M02 A3008 RMK A01 T01781017  RH  026%=      5-min Rain = 0
KAHS 202158Z 20011KT 18/M02 A3008 RMK A01 T01781018  RH  026%=      5-min Rain = 0
KAHS 202159Z 22010KT 18/M02 A3008 RMK A01 T01771021  RH  026%=      5-min Rain = 0
KAHS 202200Z 22012KT 18/M02 A3008 RMK A01 T01761022  RH  026%=      5-min Rain = 0
KAHS 202201Z 22011KT 18/M02 A3008 RMK A01 T01761023  RH  026%=      5-min Rain = 0
KAHS 202202Z 23011G16KT 18/M02 A3008 RMK A01 T01771022  RH  026%=      5-min Rain = 0
KAHS 202203Z 22012KT 18/M02 A3008 RMK A01 T01761024  RH  025%=      5-min Rain = 0
KAHS 202204Z 23014KT 18/M02 A3008 RMK A01 T01761023  RH  026%=      5-min Rain = 0
KAHS 202205Z 22009KT 18/M02 A3008 RMK A01 T01751024  RH  026%=      5-min Rain = 0
KAHS 202206Z 21013KT 18/M02 A3008 RMK A01 T01761022  RH  026%=      5-min Rain = 0
KAHS 202207Z 21011KT 17/M02 A3008 RMK A01 T01741024  RH  026%=      5-min Rain = 0
KAHS 202208Z 20010G16KT 18/M02 A3008 RMK A01 T01751020  RH  027%=      5-min Rain = 0
KAHS 202209Z 19012KT 18/M02 A3008 RMK A01 T01751022  RH  026%=      5-min Rain = 0
KAHS 202210Z 20011KT 18/M02 A3008 RMK A01 T01751020  RH  026%=      5-min Rain = 0
KAHS 202211Z 21013KT 18/M02 A3008 RMK A01 T01751021  RH  026%=      5-min Rain = 0
KAHS 202212Z 21013G18KT 18/M02 A3008 RMK A01 T01751020  RH  026%=      5-min Rain = 0
KAHS 202213Z 22015KT 18/M02 A3008 RMK A01 T01751021  RH  026%=      5-min Rain = 0
KAHS 202214Z 21014KT 17/M02 A3008 RMK A01 T01741022  RH  026%=      5-min Rain = 0
KAHS 202215Z 22010KT 17/M02 A3008 RMK A01 T01731022  RH  026%=      5-min Rain = 0
KAHS 202216Z 21009KT 17/M02 A3008 RMK A01 T01741019  RH  027%=      5-min Rain = 0
KAHS 202217Z 21008KT 18/M02 A3008 RMK A01 T01751017  RH  027%=      5-min Rain = 0
KAHS 202218Z 20015KT 18/M02 A3008 RMK A01 T01751022  RH  026%=      5-min Rain = 0
KAHS 202219Z 20015KT 17/M02 A3008 RMK A01 T01731023  RH  026%=      5-min Rain = 0
KAHS 202220Z 21013KT 17/M02 A3008 RMK A01 T01741021  RH  026%=      5-min Rain = 0
KAHS 202221Z 21014KT 17/M02 A3008 RMK A01 T01741022  RH  026%=      5-min Rain = 0
KAHS 202222Z 22010KT 17/M02 A3008 RMK A01 T01741020  RH  027%=      5-min Rain = 0
KAHS 202223Z 21012KT 18/M02 A3008 RMK A01 T01751020  RH  027%=      5-min Rain = 0
KAHS 202224Z 23012KT 17/M02 A3008 RMK A01 T01741023  RH  026%=      5-min Rain = 0
KAHS 202225Z 22012KT 17/M02 A3008 RMK A01 T01741022  RH  026%=      5-min Rain = 0
KAHS 202226Z 21011KT 17/M02 A3008 RMK A01 T01731024  RH  026%=      5-min Rain = 0
KAHS 202227Z 22011KT 17/M02 A3008 RMK A01 T01731022  RH  026%=      5-min Rain = 0
KAHS 202228Z 22012KT 17/M02 A3008 RMK A01 T01731024  RH  026%=      5-min Rain = 0
KAHS 202229Z 22014KT 17/M02 A3008 RMK A01 T01731024  RH  026%=      5-min Rain = 0
KAHS 202230Z 22011KT 17/M03 A3008 RMK A01 T01721026  RH  026%=      5-min Rain = 0
KAHS 202231Z 21012KT 17/M02 A3008 RMK A01 T01721024  RH  026%=      5-min Rain = 0
KAHS 202232Z 20012KT 17/M03 A3008 RMK A01 T01731025  RH  026%=      5-min Rain = 0
KAHS 202233Z 20011KT 17/M02 A3008 RMK A01 T01731023  RH  026%=      5-min Rain = 0
KAHS 202234Z 21010G15KT 17/M02 A3008 RMK A01 T01741019  RH  027%=      5-min Rain = 0
KAHS 202235Z 20011KT 17/M02 A3008 RMK A01 T01741021  RH  026%=      5-min Rain = 0
KAHS 202236Z 20012KT 17/M02 A3008 RMK A01 T01741023  RH  026%=      5-min Rain = 0
KAHS 202237Z 20011KT 17/M02 A3008 RMK A01 T01741023  RH  026%=      5-min Rain = 0
KAHS 202238Z 21011KT 17/M02 A3008 RMK A01 T01741022  RH  026%=      5-min Rain = 0
KAHS 202239Z 21014KT 17/M02 A3008 RMK A01 T01741022  RH  026%=      5-min Rain = 0
KAHS 202240Z 22010KT 17/M02 A3008 RMK A01 T01731023  RH  026%=      5-min Rain = 0
KAHS 202241Z 22011KT 17/M02 A3008 RMK A01 T01741021  RH  026%=      5-min Rain = 0
KAHS 202242Z 22010KT 17/M02 A3008 RMK A01 T01731021  RH  026%=      5-min Rain = 0
KAHS 202243Z 22011KT 17/M02 A3007 RMK A01 T01741021  RH  026%=      5-min Rain = 0
KAHS 202244Z 21010KT 17/M02 A3007 RMK A01 T01731023  RH  026%=      5-min Rain = 0
KAHS 202245Z 20009KT 17/M02 A3008 RMK A01 T01731022  RH  026%=      5-min Rain = 0
KAHS 202246Z 20008KT 17/M02 A3008 RMK A01 T01741018  RH  027%=      5-min Rain = 0
KAHS 202247Z 21010KT 17/M02 A3008 RMK A01 T01741021  RH  026%=      5-min Rain = 0
KAHS 202248Z 21010KT 17/M02 A3008 RMK A01 T01731024  RH  026%=      5-min Rain = 0
KAHS 202249Z 21010KT 17/M02 A3008 RMK A01 T01731024  RH  026%=      5-min Rain = 0
KAHS 202250Z 22010KT 17/M02 A3007 RMK A01 T01731022  RH  026%=      5-min Rain = 0
KAHS 202251Z 22009KT 17/M02 A3007 RMK A01 T01731020  RH  027%=      5-min Rain = 0
KAHS 202252Z 22009KT 17/M02 A3007 RMK A01 T01731019  RH  027%=      5-min Rain = 0
KAHS 202253Z 22009KT 17/M02 A3007 RMK A01 T01731019  RH  027%=      5-min Rain = 0
KAHS 202254Z 21011KT 17/M02 A3007 RMK A01 T01731019  RH  027%=      5-min Rain = 0
KAHS 202255Z 22011KT 17/M02 A3007 RMK A01 T01731020  RH  027%=      5-min Rain = 0
KAHS 202256Z 23011G16KT 17/M02 A3007 RMK A01 T01721022  RH  027%=      5-min Rain = 0
KAHS 202257Z 22012KT 17/M02 A3007 RMK A01 T01721024  RH  026%=      5-min Rain = 0
KAHS 202258Z 21012KT 17/M03 A3007 RMK A01 T01711026  RH  026%=      5-min Rain = 0
KAHS 202259Z 21011KT 17/M03 A3007 RMK A01 T01711028  RH  026%=      5-min Rain = 0
KAHS 202300Z 21009KT 17/M03 A3007 RMK A01 T01711027  RH  026%=      5-min Rain = 0
KAHS 202301Z 21008KT 17/M03 A3007 RMK A01 T01711025  RH  026%=      5-min Rain = 0
KAHS 202302Z 20009KT 17/M02 A3007 RMK A01 T01711023  RH  027%=      5-min Rain = 0
KAHS 202303Z 21009KT 17/M02 A3007 RMK A01 T01711024  RH  026%=      5-min Rain = 0
KAHS 202304Z 20010KT 17/M02 A3007 RMK A01 T01711023  RH  026%=      5-min Rain = 0
KAHS 202305Z 21010KT 17/M03 A3007 RMK A01 T01711026  RH  026%=      5-min Rain = 0
KAHS 202306Z 21010KT 17/M03 A3007 RMK A01 T01711025  RH  026%=      5-min Rain = 0
KAHS 202307Z 21010KT 17/M03 A3007 RMK A01 T01711025  RH  026%=      5-min Rain = 0
KAHS 202308Z 21011KT 17/M03 A3007 RMK A01 T01711026  RH  026%=      5-min Rain = 0
KAHS 202309Z 21012KT 17/M03 A3007 RMK A01 T01711028  RH  026%=      5-min Rain = 0
KAHS 202310Z 21010KT 17/M03 A3007 RMK A01 T01711026  RH  026%=      5-min Rain = 0
KAHS 202311Z 20009KT 17/M03 A3007 RMK A01 T01711027  RH  026%=      5-min Rain = 0
KAHS 202312Z 21008KT 17/M03 A3007 RMK A01 T01711026  RH  026%=      5-min Rain = 0
KAHS 202313Z 21010KT 17/M02 A3007 RMK A01 T01711024  RH  026%=      5-min Rain = 0
KAHS 202314Z 21012KT 17/M03 A3007 RMK A01 T01701026  RH  026%=      5-min Rain = 0
KAHS 202315Z 21013KT 17/M03 A3007 RMK A01 T01691028  RH  026%=      5-min Rain = 0
KAHS 202316Z 21010KT 17/M03 A3007 RMK A01 T01691028  RH  026%=      5-min Rain = 0
KAHS 202317Z 21010KT 17/M03 A3007 RMK A01 T01691027  RH  026%=      5-min Rain = 0
KAHS 202318Z 21010KT 17/M03 A3007 RMK A01 T01691026  RH  026%=      5-min Rain = 0
KAHS 202319Z 21008KT 17/M02 A3007 RMK A01 T01681024  RH  027%=      5-min Rain = 0
KAHS 202320Z 21009KT 17/M02 A3007 RMK A01 T01671023  RH  027%=      5-min Rain = 0
KAHS 202321Z 21011KT 17/M03 A3007 RMK A01 T01671025  RH  027%=      5-min Rain = 0
KAHS 202322Z 21010KT 17/M03 A3007 RMK A01 T01661026  RH  027%=      5-min Rain = 0
KAHS 202323Z 21008KT 17/M03 A3007 RMK A01 T01651025  RH  027%=      5-min Rain = 0
KAHS 202324Z 21009KT 16/M03 A3007 RMK A01 T01641025  RH  027%=      5-min Rain = 0
KAHS 202325Z 21008KT 16/M03 A3007 RMK A01 T01641025  RH  027%=      5-min Rain = 0
KAHS 202326Z 21008KT 16/M02 A3007 RMK A01 T01621024  RH  028%=      5-min Rain = 0
KAHS 202327Z 21007KT 16/M02 A3007 RMK A01 T01621023  RH  028%=      5-min Rain = 0
KAHS 202328Z 21008KT 16/M02 A3007 RMK A01 T01621023  RH  028%=      5-min Rain = 0
KAHS 202329Z 21008KT 16/M02 A3007 RMK A01 T01631024  RH  028%=      5-min Rain = 0
KAHS 202330Z 21008KT 16/M02 A3007 RMK A01 T01631024  RH  028%=      5-min Rain = 0
KAHS 202331Z 21008KT 16/M03 A3007 RMK A01 T01631025  RH  027%=      5-min Rain = 0
KAHS 202332Z 21007KT 16/M03 A3007 RMK A01 T01631026  RH  027%=      5-min Rain = 0
KAHS 202333Z 21007KT 16/M03 A3007 RMK A01 T01631025  RH  027%=      5-min Rain = 0
KAHS 202334Z 20008KT 16/M03 A3007 RMK A01 T01631026  RH  027%=      5-min Rain = 0
KAHS 202335Z 21009KT 16/M03 A3007 RMK A01 T01621026  RH  027%=      5-min Rain = 0
KAHS 202336Z 21010KT 16/M03 A3007 RMK A01 T01621027  RH  027%=      5-min Rain = 0
KAHS 202337Z 21010KT 16/M03 A3007 RMK A01 T01621029  RH  027%=      5-min Rain = 0
KAHS 202338Z 21010KT 16/M03 A3007 RMK A01 T01621030  RH  027%=      5-min Rain = 0
KAHS 202339Z 21011KT 16/M03 A3007 RMK A01 T01621029  RH  027%=      5-min Rain = 0
KAHS 202340Z 21009KT 16/M03 A3007 RMK A01 T01611029  RH  027%=      5-min Rain = 0
KAHS 202341Z 21009KT 16/M03 A3007 RMK A01 T01591027  RH  028%=      5-min Rain = 0
KAHS 202342Z 22009KT 16/M03 A3007 RMK A01 T01581026  RH  028%=      5-min Rain = 0
KAHS 202343Z 21008KT 16/M03 A3007 RMK A01 T01571026  RH  028%=      5-min Rain = 0
KAHS 202344Z 22009KT 16/M03 A3007 RMK A01 T01561027  RH  028%=      5-min Rain = 0
KAHS 202345Z 21009KT 16/M03 A3007 RMK A01 T01561027  RH  028%=      5-min Rain = 0
KAHS 202346Z 21007KT 16/M03 A3007 RMK A01 T01561026  RH  029%=      5-min Rain = 0
KAHS 202347Z 21009KT 15/M03 A3007 RMK A01 T01541025  RH  029%=      5-min Rain = 0
KAHS 202348Z 21009KT 15/M03 A3007 RMK A01 T01541027  RH  029%=      5-min Rain = 0
KAHS 202349Z 21008KT 15/M03 A3007 RMK A01 T01541026  RH  029%=      5-min Rain = 0
KAHS 202350Z 21009KT 15/M03 A3007 RMK A01 T01531027  RH  029%=      5-min Rain = 0
KAHS 202351Z 21008KT 15/M03 A3007 RMK A01 T01531027  RH  029%=      5-min Rain = 0
KAHS 202352Z 21009KT 15/M03 A3007 RMK A01 T01531028  RH  029%=      5-min Rain = 0
KAHS 202353Z 21009KT 15/M03 A3007 RMK A01 T01531028  RH  029%=      5-min Rain = 0
KAHS 202354Z 21008KT 15/M03 A3007 RMK A01 T01531028  RH  029%=      5-min Rain = 0
KAHS 202355Z 21009KT 15/M03 A3007 RMK A01 T01511028  RH  029%=      5-min Rain = 0
KAHS 202356Z 21008KT 15/M03 A3007 RMK A01 T01511027  RH  029%=      5-min Rain = 0
KAHS 202357Z 21008KT 15/M03 A3007 RMK A01 T01501027  RH  029%=      5-min Rain = 0
KAHS 202358Z 21008KT 15/M03 A3007 RMK A01 T01501027  RH  029%=      5-min Rain = 0
KAHS 202359Z 21007KT 15/M03 A3007 RMK A01 T01491027  RH  030%=      5-min Rain = 0
KAHS 210000Z 21007KT 15/M03 A3007 RMK A01 T01481026  RH  030%=      5-min Rain = 0
KAHS 210001Z 21006KT 15/M03 A3007 RMK A01 T01471026  RH  030%=      5-min Rain = 0
KAHS 210002Z 21007KT 15/M03 A3007 RMK A01 T01461026  RH  030%=      5-min Rain = 0
KAHS 210003Z 21007KT 15/M03 A3007 RMK A01 T01461026  RH  030%=      5-min Rain = 0
KAHS 210004Z 21007KT 15/M03 A3007 RMK A01 T01451026  RH  031%=      5-min Rain = 0
KAHS 210005Z 21007KT 14/M03 A3007 RMK A01 T01441025  RH  031%=      5-min Rain = 0
KAHS 210006Z 21007KT 14/M03 A3007 RMK A01 T01441025  RH  031%=      5-min Rain = 0
KAHS 210007Z 21007KT 14/M03 A3007 RMK A01 T01431025  RH  031%=      5-min Rain = 0
KAHS 210008Z 21007KT 14/M03 A3007 RMK A01 T01431025  RH  031%=      5-min Rain = 0
KAHS 210009Z 21007KT 14/M03 A3007 RMK A01 T01421025  RH  031%=      5-min Rain = 0
KAHS 210010Z 21007KT 14/M03 A3007 RMK A01 T01411025  RH  031%=      5-min Rain = 0
KAHS 210011Z 20007KT 14/M03 A3007 RMK A01 T01411026  RH  032%=      5-min Rain = 0
KAHS 210012Z 21007KT 14/M03 A3007 RMK A01 T01411026  RH  032%=      5-min Rain = 0
KAHS 210013Z 20007KT 14/M03 A3007 RMK A01 T01411026  RH  031%=      5-min Rain = 0
KAHS 210014Z 20007KT 14/M03 A3007 RMK A01 T01401026  RH  032%=      5-min Rain = 0
KAHS 210015Z 20007KT 14/M03 A3007 RMK A01 T01391026  RH  032%=      5-min Rain = 0
KAHS 210016Z 20007KT 14/M03 A3007 RMK A01 T01381026  RH  032%=      5-min Rain = 0
KAHS 210017Z 20007KT 14/M03 A3007 RMK A01 T01371026  RH  032%=      5-min Rain = 0
KAHS 210018Z 19006KT 14/M03 A3007 RMK A01 T01361026  RH  032%=      5-min Rain = 0
KAHS 210019Z 20007KT 14/M03 A3006 RMK A01 T01361026  RH  033%=      5-min Rain = 0
KAHS 210020Z 19006KT 14/M03 A3006 RMK A01 T01351026  RH  033%=      5-min Rain = 0
KAHS 210021Z 19006KT 14/M03 A3006 RMK A01 T01351026  RH  033%=      5-min Rain = 0
KAHS 210022Z 19006KT 13/M03 A3006 RMK A01 T01341025  RH  033%=      5-min Rain = 0
KAHS 210023Z 18006KT 13/M03 A3006 RMK A01 T01331025  RH  033%=      5-min Rain = 0
KAHS 210024Z 18007KT 13/M03 A3006 RMK A01 T01321025  RH  033%=      5-min Rain = 0
KAHS 210025Z 18006KT 13/M03 A3006 RMK A01 T01321025  RH  034%=      5-min Rain = 0
KAHS 210026Z 18006KT 13/M02 A3006 RMK A01 T01311024  RH  034%=      5-min Rain = 0
KAHS 210027Z 19007KT 13/M02 A3006 RMK A01 T01301024  RH  034%=      5-min Rain = 0
KAHS 210028Z 18007KT 13/M02 A3006 RMK A01 T01301024  RH  034%=      5-min Rain = 0
KAHS 210029Z 18007KT 13/M02 A3006 RMK A01 T01291024  RH  035%=      5-min Rain = 0
KAHS 210030Z 18007KT 13/M02 A3006 RMK A01 T01281023  RH  035%=      5-min Rain = 0
KAHS 210031Z 19007KT 13/M02 A3006 RMK A01 T01281023  RH  035%=      5-min Rain = 0
KAHS 210032Z 19006KT 13/M02 A3006 RMK A01 T01281022  RH  035%=      5-min Rain = 0
KAHS 210033Z 19007KT 13/M02 A3006 RMK A01 T01271022  RH  035%=      5-min Rain = 0
KAHS 210034Z 18006KT 13/M02 A3006 RMK A01 T01271022  RH  035%=      5-min Rain = 0
KAHS 210035Z 18006KT 13/M02 A3006 RMK A01 T01271022  RH  035%=      5-min Rain = 0
KAHS 210036Z 18007KT 13/M02 A3006 RMK A01 T01271022  RH  036%=      5-min Rain = 0
KAHS 210037Z 18006KT 13/M02 A3006 RMK A01 T01261022  RH  036%=      5-min Rain = 0
KAHS 210038Z 18005KT 13/M02 A3006 RMK A01 T01261022  RH  036%=      5-min Rain = 0
KAHS 210039Z 18006KT 13/M02 A3006 RMK A01 T01251022  RH  036%=      5-min Rain = 0
KAHS 210040Z 18006KT 12/M02 A3006 RMK A01 T01241022  RH  036%=      5-min Rain = 0
KAHS 210041Z 19005KT 12/M02 A3006 RMK A01 T01241022  RH  036%=      5-min Rain = 0
KAHS 210042Z 18005KT 12/M02 A3006 RMK A01 T01231022  RH  036%=      5-min Rain = 0
KAHS 210043Z 18005KT 12/M02 A3006 RMK A01 T01231022  RH  036%=      5-min Rain = 0
KAHS 210044Z 19005KT 12/M02 A3006 RMK A01 T01221022  RH  037%=      5-min Rain = 0
KAHS 210045Z 18005KT 12/M02 A3006 RMK A01 T01221022  RH  037%=      5-min Rain = 0
KAHS 210046Z 18005KT 12/M02 A3006 RMK A01 T01221022  RH  037%=      5-min Rain = 0
KAHS 210047Z 18005KT 12/M02 A3006 RMK A01 T01221022  RH  037%=      5-min Rain = 0
KAHS 210048Z 19005KT 12/M02 A3006 RMK A01 T01221022  RH  037%=      5-min Rain = 0
KAHS 210049Z 19005KT 12/M02 A3006 RMK A01 T01211022  RH  037%=      5-min Rain = 0
KAHS 210050Z 19004KT 12/M02 A3006 RMK A01 T01211022  RH  037%=      5-min Rain = 0
KAHS 210051Z 19004KT 12/M02 A3006 RMK A01 T01201022  RH  037%=      5-min Rain = 0
KAHS 210052Z 18005KT 12/M02 A3006 RMK A01 T01201022  RH  037%=      5-min Rain = 0
KAHS 210053Z 18005KT 12/M02 A3006 RMK A01 T01201022  RH  037%=      5-min Rain = 0
KAHS 210054Z 18005KT 12/M02 A3006 RMK A01 T01201022  RH  037%=      5-min Rain = 0
KAHS 210055Z 18005KT 12/M02 A3006 RMK A01 T01191022  RH  037%=      5-min Rain = 0
KAHS 210056Z 18005KT 12/M02 A3006 RMK A01 T01191022  RH  037%=      5-min Rain = 0
KAHS 210057Z 19005KT 12/M02 A3006 RMK A01 T01191022  RH  037%=      5-min Rain = 0
KAHS 210058Z 18005KT 12/M02 A3006 RMK A01 T01191022  RH  037%=      5-min Rain = 0
KAHS 210059Z 19005KT 12/M02 A3006 RMK A01 T01181023  RH  037%=      5-min Rain = 0
KAHS 210100Z 19005KT 12/M02 A3006 RMK A01 T01181023  RH  037%=      5-min Rain = 0
KAHS 210101Z 19005KT 12/M02 A3006 RMK A01 T01181023  RH  037%=      5-min Rain = 0
KAHS 210102Z 19005KT 12/M02 A3006 RMK A01 T01181023  RH  037%=      5-min Rain = 0
KAHS 210103Z 19006KT 12/M02 A3006 RMK A01 T01181024  RH  037%=      5-min Rain = 0
KAHS 210104Z 19006KT 12/M02 A3006 RMK A01 T01181023  RH  037%=      5-min Rain = 0
KAHS 210105Z 19005KT 12/M02 A3006 RMK A01 T01181024  RH  037%=      5-min Rain = 0
KAHS 210106Z 19005KT 12/M02 A3006 RMK A01 T01181024  RH  037%=      5-min Rain = 0
KAHS 210107Z 19005KT 12/M02 A3006 RMK A01 T01171024  RH  037%=      5-min Rain = 0
KAHS 210108Z 19005KT 12/M02 A3006 RMK A01 T01171024  RH  037%=      5-min Rain = 0
KAHS 210109Z 18004KT 12/M02 A3006 RMK A01 T01161024  RH  038%=      5-min Rain = 0
KAHS 210110Z 18004KT 12/M02 A3006 RMK A01 T01161024  RH  038%=      5-min Rain = 0
KAHS 210111Z 18004KT 12/M02 A3006 RMK A01 T01151024  RH  038%=      5-min Rain = 0
KAHS 210112Z 17003KT 12/M02 A3006 RMK A01 T01151023  RH  038%=      5-min Rain = 0
KAHS 210113Z 16003KT 11/M02 A3006 RMK A01 T01141023  RH  038%=      5-min Rain = 0
KAHS 210114Z 15002KT 11/M02 A3006 RMK A01 T01141023  RH  038%=      5-min Rain = 0
KAHS 210115Z 14003KT 11/M02 A3006 RMK A01 T01131023  RH  038%=      5-min Rain = 0
KAHS 210116Z 15003KT 11/M02 A3006 RMK A01 T01131023  RH  038%=      5-min Rain = 0
KAHS 210117Z 15003KT 11/M02 A3006 RMK A01 T01131024  RH  038%=      5-min Rain = 0
KAHS 210118Z 15003KT 11/M02 A3006 RMK A01 T01121024  RH  039%=      5-min Rain = 0
KAHS 210119Z 15002KT 11/M02 A3006 RMK A01 T01121023  RH  039%=      5-min Rain = 0
KAHS 210120Z 16002KT 11/M02 A3006 RMK A01 T01111024  RH  039%=      5-min Rain = 0
KAHS 210121Z 16003KT 11/M02 A3006 RMK A01 T01111024  RH  039%=      5-min Rain = 0
KAHS 210122Z 17003KT 11/M02 A3006 RMK A01 T01111023  RH  039%=      5-min Rain = 0
KAHS 210123Z 17003KT 11/M02 A3006 RMK A01 T01101024  RH  039%=      5-min Rain = 0
KAHS 210124Z 17003KT 11/M02 A3006 RMK A01 T01101024  RH  039%=      5-min Rain = 0
KAHS 210125Z 17003KT 11/M02 A3006 RMK A01 T01101024  RH  039%=      5-min Rain = 0
KAHS 210126Z 18003KT 11/M02 A3006 RMK A01 T01101024  RH  039%=      5-min Rain = 0
KAHS 210127Z 18003KT 11/M02 A3006 RMK A01 T01101024  RH  039%=      5-min Rain = 0
KAHS 210128Z 18003KT 11/M02 A3006 RMK A01 T01111024  RH  039%=      5-min Rain = 0
KAHS 210129Z 18003KT 11/M03 A3006 RMK A01 T01111025  RH  039%=      5-min Rain = 0
KAHS 210130Z 17002KT 11/M03 A3006 RMK A01 T01101025  RH  039%=      5-min Rain = 0
KAHS 210131Z 17003KT 11/M02 A3006 RMK A01 T01101024  RH  039%=      5-min Rain = 0
KAHS 210132Z 17003KT 11/M03 A3006 RMK A01 T01101025  RH  039%=      5-min Rain = 0
KAHS 210133Z 17003KT 11/M03 A3006 RMK A01 T01101025  RH  039%=      5-min Rain = 0
KAHS 210134Z 16003KT 11/M03 A3006 RMK A01 T01101025  RH  039%=      5-min Rain = 0
KAHS 210135Z 16003KT 11/M03 A3006 RMK A01 T01101025  RH  039%=      5-min Rain = 0
KAHS 210136Z 17003KT 11/M03 A3006 RMK A01 T01091025  RH  039%=      5-min Rain = 0
KAHS 210137Z 16003KT 11/M03 A3006 RMK A01 T01091025  RH  039%=      5-min Rain = 0
KAHS 210138Z 17003KT 11/M03 A3006 RMK A01 T01081025  RH  039%=      5-min Rain = 0
KAHS 210139Z 17003KT 11/M03 A3006 RMK A01 T01071025  RH  040%=      5-min Rain = 0
KAHS 210140Z 18003KT 11/M03 A3006 RMK A01 T01061025  RH  040%=      5-min Rain = 0
KAHS 210141Z 18003KT 11/M03 A3006 RMK A01 T01061025  RH  040%=      5-min Rain = 0
KAHS 210142Z 18003KT 11/M02 A3006 RMK A01 T01061024  RH  040%=      5-min Rain = 0
KAHS 210143Z 18003KT 11/M03 A3006 RMK A01 T01061025  RH  040%=      5-min Rain = 0
KAHS 210144Z 18003KT 11/M02 A3006 RMK A01 T01061024  RH  040%=      5-min Rain = 0
KAHS 210145Z 18003KT 11/M02 A3006 RMK A01 T01051024  RH  040%=      5-min Rain = 0
KAHS 210146Z 18004KT 11/M02 A3006 RMK A01 T01051024  RH  040%=      5-min Rain = 0
KAHS 210147Z 18004KT 11/M02 A3006 RMK A01 T01051024  RH  041%=      5-min Rain = 0
KAHS 210148Z 18004KT 10/M02 A3006 RMK A01 T01041023  RH  041%=      5-min Rain = 0
KAHS 210149Z 18004KT 10/M02 A3006 RMK A01 T01041023  RH  041%=      5-min Rain = 0
KAHS 210150Z 18004KT 10/M02 A3006 RMK A01 T01031024  RH  041%=      5-min Rain = 0
KAHS 210151Z 18004KT 10/M02 A3006 RMK A01 T01021024  RH  041%=      5-min Rain = 0
KAHS 210152Z 18004KT 10/M02 A3006 RMK A01 T01021023  RH  041%=      5-min Rain = 0
KAHS 210153Z 18004KT 10/M02 A3006 RMK A01 T01011024  RH  042%=      5-min Rain = 0
KAHS 210154Z 18004KT 10/M02 A3006 RMK A01 T01011024  RH  042%=      5-min Rain = 0
KAHS 210155Z 18004KT 10/M02 A3005 RMK A01 T01001024  RH  042%=      5-min Rain = 0
KAHS 210156Z 18004KT 10/M02 A3005 RMK A01 T00991023  RH  042%=      5-min Rain = 0
KAHS 210157Z 18004KT 10/M02 A3005 RMK A01 T00991023  RH  042%=      5-min Rain = 0
KAHS 210158Z 18004KT 10/M02 A3005 RMK A01 T00991023  RH  042%=      5-min Rain = 0
KAHS 210159Z 19004KT 10/M02 A3005 RMK A01 T00991022  RH  043%=      5-min Rain = 0
KAHS 210200Z 19005KT 10/M02 A3005 RMK A01 T00991022  RH  043%=      5-min Rain = 0
KAHS 210201Z 19005KT 10/M02 A3005 RMK A01 T00991022  RH  043%=      5-min Rain = 0
KAHS 210202Z 19005KT 10/M02 A3005 RMK A01 T00991022  RH  043%=      5-min Rain = 0
KAHS 210203Z 18005KT 10/M02 A3005 RMK A01 T00991022  RH  043%=      5-min Rain = 0
KAHS 210204Z 18004KT 10/M02 A3005 RMK A01 T00991022  RH  043%=      5-min Rain = 0
KAHS 210205Z 19004KT 10/M02 A3005 RMK A01 T00991022  RH  043%=      5-min Rain = 0
KAHS 210206Z 19004KT 10/M02 A3005 RMK A01 T00981022  RH  043%=      5-min Rain = 0
KAHS 210207Z 19004KT 10/M02 A3005 RMK A01 T00981022  RH  043%=      5-min Rain = 0
KAHS 210208Z 19004KT 10/M02 A3005 RMK A01 T00981022  RH  043%=      5-min Rain = 0
KAHS 210209Z 20004KT 10/M02 A3005 RMK A01 T00971022  RH  043%=      5-min Rain = 0
KAHS 210210Z 21004KT 10/M02 A3005 RMK A01 T00971022  RH  043%=      5-min Rain = 0
KAHS 210211Z 21005KT 10/M02 A3005 RMK A01 T00971022  RH  043%=      5-min Rain = 0
KAHS 210212Z 20005KT 10/M02 A3005 RMK A01 T00961022  RH  044%=      5-min Rain = 0
KAHS 210213Z 20005KT 10/M02 A3005 RMK A01 T00951022  RH  044%=      5-min Rain = 0
KAHS 210214Z 20006KT 10/M02 A3005 RMK A01 T00951022  RH  044%=      5-min Rain = 0
KAHS 210215Z 20006KT 09/M02 A3005 RMK A01 T00941023  RH  044%=      5-min Rain = 0
KAHS 210216Z 20006KT 09/M02 A3005 RMK A01 T00941023  RH  044%=      5-min Rain = 0
KAHS 210217Z 19006KT 09/M02 A3005 RMK A01 T00931023  RH  044%=      5-min Rain = 0
KAHS 210218Z 19007KT 09/M02 A3004 RMK A01 T00931022  RH  044%=      5-min Rain = 0
KAHS 210219Z 19007KT 09/M02 A3004 RMK A01 T00941022  RH  044%=      5-min Rain = 0
KAHS 210220Z 19007KT 10/M02 A3004 RMK A01 T00951021  RH  044%=      5-min Rain = 0
KAHS 210221Z 19008KT 10/M02 A3004 RMK A01 T00951021  RH  044%=      5-min Rain = 0
KAHS 210222Z 19007KT 09/M02 A3004 RMK A01 T00941022  RH  044%=      5-min Rain = 0
KAHS 210223Z 19007KT 09/M02 A3004 RMK A01 T00931022  RH  044%=      5-min Rain = 0
KAHS 210224Z 19007KT 09/M02 A3004 RMK A01 T00921022  RH  045%=      5-min Rain = 0
KAHS 210225Z 19007KT 09/M02 A3004 RMK A01 T00921021  RH  045%=      5-min Rain = 0
KAHS 210226Z 19008KT 09/M02 A3004 RMK A01 T00921021  RH  045%=      5-min Rain = 0
KAHS 210227Z 19008KT 09/M02 A3004 RMK A01 T00931021  RH  045%=      5-min Rain = 0
KAHS 210228Z 19007KT 09/M02 A3004 RMK A01 T00931021  RH  045%=      5-min Rain = 0
KAHS 210229Z 19007KT 09/M02 A3004 RMK A01 T00931021  RH  045%=      5-min Rain = 0
KAHS 210230Z 19008KT 09/M02 A3004 RMK A01 T00931021  RH  045%=      5-min Rain = 0
KAHS 210231Z 19008KT 09/M02 A3004 RMK A01 T00931020  RH  045%=      5-min Rain = 0
KAHS 210232Z 19008KT 09/M02 A3004 RMK A01 T00931020  RH  045%=      5-min Rain = 0
KAHS 210233Z 19008KT 09/M02 A3004 RMK A01 T00931020  RH  045%=      5-min Rain = 0
KAHS 210234Z 19008KT 09/M02 A3004 RMK A01 T00941019  RH  045%=      5-min Rain = 0
KAHS 210235Z 19008KT 09/M02 A3004 RMK A01 T00941019  RH  045%=      5-min Rain = 0
KAHS 210236Z 19008KT 09/M02 A3004 RMK A01 T00941018  RH  045%=      5-min Rain = 0
KAHS 210237Z 19008KT 09/M02 A3004 RMK A01 T00931018  RH  046%=      5-min Rain = 0
KAHS 210238Z 19008KT 09/M02 A3004 RMK A01 T00941017  RH  046%=      5-min Rain = 0
KAHS 210239Z 19008KT 10/M02 A3004 RMK A01 T00951017  RH  045%=      5-min Rain = 0
KAHS 210240Z 19008KT 10/M02 A3004 RMK A01 T00961017  RH  045%=      5-min Rain = 0
KAHS 210241Z 19008KT 10/M02 A3004 RMK A01 T00971016  RH  045%=      5-min Rain = 0
KAHS 210242Z 19009KT 10/M02 A3004 RMK A01 T00961016  RH  045%=      5-min Rain = 0
KAHS 210243Z 19008KT 10/M02 A3004 RMK A01 T00971015  RH  045%=      5-min Rain = 0
KAHS 210244Z 18008KT 10/M02 A3004 RMK A01 T00971015  RH  046%=      5-min Rain = 0
KAHS 210245Z 19008KT 10/M02 A3004 RMK A01 T00981015  RH  045%=      5-min Rain = 0
KAHS 210246Z 19008KT 10/M02 A3004 RMK A01 T00981015  RH  045%=      5-min Rain = 0
KAHS 210247Z 19007KT 10/M01 A3004 RMK A01 T00981014  RH  045%=      5-min Rain = 0
KAHS 210248Z 19007KT 10/M01 A3004 RMK A01 T00981014  RH  046%=      5-min Rain = 0
KAHS 210249Z 19008KT 10/M01 A3004 RMK A01 T00981014  RH  046%=      5-min Rain = 0
KAHS 210250Z 19007KT 10/M01 A3004 RMK A01 T00981014  RH  046%=      5-min Rain = 0
KAHS 210251Z 18008KT 10/M01 A3004 RMK A01 T00981014  RH  046%=      5-min Rain = 0
KAHS 210252Z 19008KT 10/M01 A3004 RMK A01 T00991013  RH  045%=      5-min Rain = 0
KAHS 210253Z 19008KT 10/M01 A3003 RMK A01 T00991013  RH  046%=      5-min Rain = 0
KAHS 210254Z 19007KT 10/M01 A3003 RMK A01 T00991013  RH  046%=      5-min Rain = 0
KAHS 210255Z 19008KT 10/M01 A3003 RMK A01 T00991013  RH  046%=      5-min Rain = 0
KAHS 210256Z 18008KT 10/M01 A3003 RMK A01 T00991013  RH  046%=      5-min Rain = 0
KAHS 210257Z 19008KT 10/M01 A3003 RMK A01 T00991013  RH  046%=      5-min Rain = 0
KAHS 210258Z 18008KT 10/M01 A3003 RMK A01 T00991013  RH  046%=      5-min Rain = 0
KAHS 210259Z 18008KT 10/M01 A3003 RMK A01 T00991013  RH  045%=      5-min Rain = 0
KAHS 210300Z 19009KT 10/M01 A3003 RMK A01 T01001013  RH  045%=      5-min Rain = 0
KAHS 210301Z 19008KT 10/M01 A3003 RMK A01 T01001013  RH  045%=      5-min Rain = 0
KAHS 210302Z 18008KT 10/M01 A3003 RMK A01 T00991012  RH  046%=      5-min Rain = 0
KAHS 210303Z 19008KT 10/M01 A3003 RMK A01 T00991012  RH  046%=      5-min Rain = 0
KAHS 210304Z 19008KT 10/M01 A3003 RMK A01 T00991012  RH  046%=      5-min Rain = 0
KAHS 210305Z 19008KT 10/M01 A3003 RMK A01 T00981012  RH  046%=      5-min Rain = 0
KAHS 210306Z 19008KT 10/M01 A3003 RMK A01 T00981012  RH  046%=      5-min Rain = 0
KAHS 210307Z 19008KT 10/M01 A3003 RMK A01 T00971012  RH  046%=      5-min Rain = 0
KAHS 210308Z 19008KT 10/M01 A3003 RMK A01 T00971013  RH  046%=      5-min Rain = 0
KAHS 210309Z 19008KT 10/M01 A3003 RMK A01 T00971013  RH  046%=      5-min Rain = 0
KAHS 210310Z 19008KT 10/M01 A3003 RMK A01 T00971013  RH  046%=      5-min Rain = 0
KAHS 210311Z 19008KT 10/M01 A3003 RMK A01 T00961013  RH  047%=      5-min Rain = 0
KAHS 210312Z 19008KT 10/M01 A3003 RMK A01 T00961013  RH  046%=      5-min Rain = 0
KAHS 210313Z 19007KT 10/M01 A3003 RMK A01 T00971013  RH  046%=      5-min Rain = 0
KAHS 210314Z 19008KT 10/M01 A3003 RMK A01 T00961013  RH  046%=      5-min Rain = 0
KAHS 210315Z 19007KT 10/M01 A3003 RMK A01 T00961013  RH  047%=      5-min Rain = 0
KAHS 210316Z 19007KT 10/M01 A3003 RMK A01 T00961013  RH  047%=      5-min Rain = 0
KAHS 210317Z 19007KT 10/M01 A3003 RMK A01 T00951013  RH  047%=      5-min Rain = 0
KAHS 210318Z 19007KT 09/M01 A3003 RMK A01 T00941013  RH  047%=      5-min Rain = 0
KAHS 210319Z 19007KT 09/M01 A3003 RMK A01 T00931012  RH  048%=      5-min Rain = 0
KAHS 210320Z 19007KT 09/M01 A3003 RMK A01 T00931012  RH  048%=      5-min Rain = 0
KAHS 210321Z 19007KT 09/M01 A3003 RMK A01 T00931012  RH  048%=      5-min Rain = 0
KAHS 210322Z 19007KT 09/M01 A3003 RMK A01 T00931012  RH  048%=      5-min Rain = 0
KAHS 210323Z 19007KT 09/M01 A3003 RMK A01 T00921011  RH  048%=      5-min Rain = 0
KAHS 210324Z 19007KT 09/M01 A3003 RMK A01 T00911011  RH  049%=      5-min Rain = 0
KAHS 210325Z 19007KT 09/M01 A3003 RMK A01 T00911011  RH  049%=      5-min Rain = 0
KAHS 210326Z 19008KT 09/M01 A3003 RMK A01 T00911011  RH  049%=      5-min Rain = 0
KAHS 210327Z 19007KT 09/M01 A3003 RMK A01 T00901011  RH  049%=      5-min Rain = 0
KAHS 210328Z 19007KT 09/M01 A3003 RMK A01 T00891011  RH  049%=      5-min Rain = 0
KAHS 210329Z 19007KT 09/M01 A3003 RMK A01 T00891011  RH  050%=      5-min Rain = 0
KAHS 210330Z 20007KT 09/M01 A3003 RMK A01 T00881011  RH  050%=      5-min Rain = 0
KAHS 210331Z 20007KT 09/M01 A3003 RMK A01 T00871011  RH  050%=      5-min Rain = 0
KAHS 210332Z 20007KT 09/M01 A3003 RMK A01 T00871012  RH  050%=      5-min Rain = 0
KAHS 210333Z 20008KT 09/M01 A3003 RMK A01 T00871012  RH  050%=      5-min Rain = 0
KAHS 210334Z 20008KT 09/M01 A3003 RMK A01 T00871012  RH  050%=      5-min Rain = 0
KAHS 210335Z 20008KT 09/M01 A3003 RMK A01 T00891011  RH  050%=      5-min Rain = 0
KAHS 210336Z 20008KT 09/M01 A3003 RMK A01 T00901011  RH  049%=      5-min Rain = 0
KAHS 210337Z 20009KT 09/M01 A3002 RMK A01 T00921010  RH  049%=      5-min Rain = 0
KAHS 210338Z 20009KT 09/M01 A3002 RMK A01 T00931010  RH  049%=      5-min Rain = 0
KAHS 210339Z 20008KT 10/M01 A3002 RMK A01 T00951009  RH  048%=      5-min Rain = 0
KAHS 210340Z 20008KT 10/M01 A3002 RMK A01 T00981008  RH  047%=      5-min Rain = 0
KAHS 210341Z 20008KT 10/M01 A3002 RMK A01 T00991008  RH  047%=      5-min Rain = 0
KAHS 210342Z 20009KT 10/M01 A3002 RMK A01 T00991008  RH  047%=      5-min Rain = 0
KAHS 210343Z 20010KT 10/M01 A3002 RMK A01 T01011008  RH  047%=      5-min Rain = 0
KAHS 210344Z 20009KT 10/M01 A3002 RMK A01 T01041008  RH  046%=      5-min Rain = 0
KAHS 210345Z 20009KT 10/M01 A3002 RMK A01 T01041008  RH  046%=      5-min Rain = 0
KAHS 210346Z 19009KT 10/M01 A3002 RMK A01 T01041008  RH  046%=      5-min Rain = 0
KAHS 210347Z 20010KT 11/M01 A3002 RMK A01 T01051008  RH  046%=      5-min Rain = 0
KAHS 210348Z 20011KT 11/M01 A3002 RMK A01 T01071007  RH  045%=      5-min Rain = 0
KAHS 210349Z 20010KT 11/M01 A3002 RMK A01 T01091007  RH  045%=      5-min Rain = 0
KAHS 210350Z 20010KT 11/M01 A3002 RMK A01 T01091007  RH  044%=      5-min Rain = 0
KAHS 210351Z 20010KT 11/M01 A3002 RMK A01 T01091007  RH  044%=      5-min Rain = 0
KAHS 210352Z 20010KT 11/M01 A3002 RMK A01 T01091007  RH  044%=      5-min Rain = 0
KAHS 210353Z 20011KT 11/M01 A3001 RMK A01 T01101007  RH  044%=      5-min Rain = 0
KAHS 210354Z 20011KT 11/M01 A3001 RMK A01 T01111007  RH  044%=      5-min Rain = 0
KAHS 210355Z 20012KT 11/M01 A3001 RMK A01 T01121007  RH  044%=      5-min Rain = 0
KAHS 210356Z 20012KT 11/M01 A3001 RMK A01 T01141007  RH  043%=      5-min Rain = 0
KAHS 210357Z 20013KT 12/M01 A3001 RMK A01 T01161007  RH  042%=      5-min Rain = 0
KAHS 210358Z 20011KT 12/M01 A3001 RMK A01 T01161008  RH  042%=      5-min Rain = 0
KAHS 210359Z 20010KT 12/M01 A3001 RMK A01 T01161007  RH  042%=      5-min Rain = 0
KAHS 210400Z 20010KT 12/M01 A3001 RMK A01 T01161008  RH  042%=      5-min Rain = 0
KAHS 210401Z 20011KT 12/M01 A3001 RMK A01 T01161007  RH  043%=      5-min Rain = 0
KAHS 210402Z 20010KT 12/M01 A3001 RMK A01 T01151007  RH  043%=      5-min Rain = 0
KAHS 210403Z 20011KT 12/M01 A3001 RMK A01 T01151008  RH  043%=      5-min Rain = 0
KAHS 210404Z 20012KT 12/M01 A3001 RMK A01 T01151008  RH  043%=      5-min Rain = 0
KAHS 210405Z 20010KT 12/M01 A3001 RMK A01 T01151008  RH  043%=      5-min Rain = 0
KAHS 210406Z 20009KT 11/M01 A3001 RMK A01 T01141008  RH  043%=      5-min Rain = 0
KAHS 210407Z 20010KT 11/M01 A3001 RMK A01 T01141008  RH  043%=      5-min Rain = 0
KAHS 210408Z 20011KT 11/M01 A3001 RMK A01 T01141008  RH  043%=      5-min Rain = 0
KAHS 210409Z 20012KT 11/M01 A3001 RMK A01 T01141008  RH  043%=      5-min Rain = 0
KAHS 210410Z 20013KT 12/M01 A3001 RMK A01 T01151008  RH  043%=      5-min Rain = 0
KAHS 210411Z 20011KT 12/M01 A3001 RMK A01 T01151008  RH  043%=      5-min Rain = 0
KAHS 210412Z 20011KT 11/M01 A3001 RMK A01 T01141008  RH  043%=      5-min Rain = 0
KAHS 210413Z 20013KT 11/M01 A30 RMK A01 T01131008  RH  043%=      5-min Rain = 0
KAHS 210414Z 20012KT 11/M01 A30 RMK A01 T01141008  RH  043%=      5-min Rain = 0
KAHS 210415Z 20011KT 11/M01 A30 RMK A01 T01141009  RH  043%=      5-min Rain = 0
KAHS 210416Z 20011KT 11/M01 A30 RMK A01 T01141009  RH  043%=      5-min Rain = 0
KAHS 210417Z 20012KT 11/M01 A30 RMK A01 T01131009  RH  043%=      5-min Rain = 0
KAHS 210418Z 20014KT 11/M01 A30 RMK A01 T01131009  RH  043%=      5-min Rain = 0
KAHS 210419Z 20013KT 11/M01 A30 RMK A01 T01141009  RH  042%=      5-min Rain = 0
KAHS 210420Z 20012KT 11/M01 A30 RMK A01 T01141009  RH  042%=      5-min Rain = 0
KAHS 210421Z 20012G17KT 11/M01 A30 RMK A01 T01131009  RH  043%=      5-min Rain = 0
KAHS 210422Z 20013KT 11/M01 A30 RMK A01 T01131009  RH  043%=      5-min Rain = 0
KAHS 210423Z 20013KT 11/M01 A30 RMK A01 T01141009  RH  042%=      5-min Rain = 0
KAHS 210424Z 20012KT 11/M01 A30 RMK A01 T01141009  RH  042%=      5-min Rain = 0
KAHS 210425Z 20010KT 11/M01 A30 RMK A01 T01141010  RH  042%=      5-min Rain = 0
KAHS 210426Z 20012KT 11/M01 A30 RMK A01 T01131009  RH  043%=      5-min Rain = 0
KAHS 210427Z 20013KT 11/M01 A30 RMK A01 T01131009  RH  043%=      5-min Rain = 0
KAHS 210428Z 20013KT 11/M01 A30 RMK A01 T01131010  RH  043%=      5-min Rain = 0
KAHS 210429Z 20013KT 11/M01 A30 RMK A01 T01131010  RH  042%=      5-min Rain = 0
KAHS 210430Z 20012KT 11/M01 A30 RMK A01 T01131010  RH  042%=      5-min Rain = 0
KAHS 210431Z 20012KT 11/M01 A30 RMK A01 T01131010  RH  043%=      5-min Rain = 0
KAHS 210432Z 20013KT 11/M01 A30 RMK A01 T01121010  RH  043%=      5-min Rain = 0
KAHS 210433Z 20012KT 11/M01 A30 RMK A01 T01131010  RH  042%=      5-min Rain = 0
KAHS 210434Z 20011KT 11/M01 A30 RMK A01 T01121010  RH  043%=      5-min Rain = 0
KAHS 210435Z 20011KT 11/M01 A30 RMK A01 T01111010  RH  043%=      5-min Rain = 0
KAHS 210436Z 20011KT 11/M01 A30 RMK A01 T01101010  RH  043%=      5-min Rain = 0
KAHS 210437Z 20011KT 11/M01 A3001 RMK A01 T01091010  RH  044%=      5-min Rain = 0
KAHS 210438Z 21013KT 11/M01 A3001 RMK A01 T01091009  RH  044%=      5-min Rain = 0
KAHS 210439Z 20010KT 11/M01 A3001 RMK A01 T01091010  RH  044%=      5-min Rain = 0
KAHS 210440Z 20011KT 11/M01 A3001 RMK A01 T01091010  RH  044%=      5-min Rain = 0
KAHS 210441Z 21013KT 11/M01 A3001 RMK A01 T01091010  RH  044%=      5-min Rain = 0
KAHS 210442Z 20011KT 11/M01 A3001 RMK A01 T01091010  RH  043%=      5-min Rain = 0
KAHS 210443Z 21011KT 11/M01 A3001 RMK A01 T01091010  RH  044%=      5-min Rain = 0
KAHS 210444Z 20010KT 11/M01 A3001 RMK A01 T01081010  RH  044%=      5-min Rain = 0
KAHS 210445Z 21010KT 11/M01 A3001 RMK A01 T01071010  RH  044%=      5-min Rain = 0
KAHS 210446Z 21010KT 11/M01 A3001 RMK A01 T01061010  RH  044%=      5-min Rain = 0
KAHS 210447Z 20011KT 11/M01 A3001 RMK A01 T01061010  RH  045%=      5-min Rain = 0
KAHS 210448Z 21011KT 11/M01 A3001 RMK A01 T01061010  RH  044%=      5-min Rain = 0
KAHS 210449Z 20012KT 11/M01 A3001 RMK A01 T01061010  RH  044%=      5-min Rain = 0
KAHS 210450Z 20012KT 11/M01 A3001 RMK A01 T01051010  RH  045%=      5-min Rain = 0
KAHS 210451Z 20010KT 11/M01 A3001 RMK A01 T01051010  RH  045%=      5-min Rain = 0
KAHS 210452Z 20010KT 10/M01 A3001 RMK A01 T01041010  RH  045%=      5-min Rain = 0
KAHS 210453Z 20011KT 10/M01 A3001 RMK A01 T01041010  RH  045%=      5-min Rain = 0
KAHS 210454Z 20013KT 10/M01 A3001 RMK A01 T01041010  RH  045%=      5-min Rain = 0
KAHS 210455Z 20011KT 10/M01 A3001 RMK A01 T01041010  RH  045%=      5-min Rain = 0
KAHS 210456Z 20012KT 10/M01 A3001 RMK A01 T01041009  RH  045%=      5-min Rain = 0
KAHS 210457Z 20013KT 10/M01 A3001 RMK A01 T01031009  RH  046%=      5-min Rain = 0
KAHS 210458Z 20012KT 10/M01 A3001 RMK A01 T01041009  RH  045%=      5-min Rain = 0
KAHS 210459Z 20013KT 10/M01 A3001 RMK A01 T01041009  RH  045%=      5-min Rain = 0
KAHS 210500Z 20012KT 10/M01 A3001 RMK A01 T01031009  RH  046%=      5-min Rain = 0
KAHS 210501Z 20012KT 10/M01 A3001 RMK A01 T01031009  RH  046%=      5-min Rain = 0
KAHS 210502Z 20011KT 10/M01 A3001 RMK A01 T01031009  RH  046%=      5-min Rain = 0
KAHS 210503Z 21009KT 10/M01 A3001 RMK A01 T01011009  RH  046%=      5-min Rain = 0
KAHS 210504Z 20012KT 10/M01 A3001 RMK A01 T01001009  RH  047%=      5-min Rain = 0
KAHS 210505Z 21011KT 10/M01 A3001 RMK A01 T01011009  RH  046%=      5-min Rain = 0
KAHS 210506Z 20011KT 10/M01 A3001 RMK A01 T01011009  RH  046%=      5-min Rain = 0
KAHS 210507Z 21015KT 10/M01 A3001 RMK A01 T01011009  RH  046%=      5-min Rain = 0
KAHS 210508Z 21011KT 10/M01 A3001 RMK A01 T01031009  RH  046%=      5-min Rain = 0
KAHS 210509Z 20012KT 10/M01 A3001 RMK A01 T01031009  RH  046%=      5-min Rain = 0
KAHS 210510Z 20012KT 10/M01 A3001 RMK A01 T01031009  RH  046%=      5-min Rain = 0
KAHS 210511Z 21011KT 10/M01 A3001 RMK A01 T01021010  RH  046%=      5-min Rain = 0
KAHS 210512Z 21012KT 10/M01 A3001 RMK A01 T01011009  RH  046%=      5-min Rain = 0
KAHS 210513Z 21012KT 10/M01 A3001 RMK A01 T01011009  RH  046%=      5-min Rain = 0
KAHS 210514Z 21013KT 10/M01 A3001 RMK A01 T01011009  RH  046%=      5-min Rain = 0
KAHS 210515Z 21013KT 10/M01 A3001 RMK A01 T01011009  RH  046%=      5-min Rain = 0
KAHS 210516Z 21011KT 10/M01 A3001 RMK A01 T01011009  RH  046%=      5-min Rain = 0
KAHS 210517Z 21012KT 10/M01 A3001 RMK A01 T01011009  RH  046%=      5-min Rain = 0
KAHS 210518Z 21014KT 10/M01 A3001 RMK A01 T01011009  RH  047%=      5-min Rain = 0
KAHS 210519Z 21013G18KT 10/M01 A3001 RMK A01 T01011009  RH  046%=      5-min Rain = 0
KAHS 210520Z 21013KT 10/M01 A3001 RMK A01 T01011009  RH  046%=      5-min Rain = 0
KAHS 210521Z 21014KT 10/M01 A3001 RMK A01 T01011008  RH  047%=      5-min Rain = 0
KAHS 210522Z 21012KT 10/M01 A3001 RMK A01 T01011008  RH  047%=      5-min Rain = 0
KAHS 210523Z 21011KT 10/M01 A3001 RMK A01 T01001008  RH  047%=      5-min Rain = 0
KAHS 210524Z 21012KT 10/M01 A3001 RMK A01 T00991008  RH  047%=      5-min Rain = 0
KAHS 210525Z 21012KT 10/M01 A3002 RMK A01 T00991008  RH  047%=      5-min Rain = 0
KAHS 210526Z 21012KT 10/M01 A3002 RMK A01 T00981008  RH  048%=      5-min Rain = 0
KAHS 210527Z 21011KT 10/M01 A3002 RMK A01 T00971008  RH  048%=      5-min Rain = 0
KAHS 210528Z 21011KT 10/M01 A3002 RMK A01 T00961008  RH  048%=      5-min Rain = 0
KAHS 210529Z 21012KT 10/M01 A3002 RMK A01 T00961008  RH  048%=      5-min Rain = 0
KAHS 210530Z 22013KT 10/M01 A3002 RMK A01 T00961008  RH  048%=      5-min Rain = 0
KAHS 210531Z 21011KT 10/M01 A3002 RMK A01 T00961008  RH  048%=      5-min Rain = 0
KAHS 210532Z 21010KT 10/M01 A3002 RMK A01 T00961008  RH  048%=      5-min Rain = 0
KAHS 210533Z 21011KT 10/M01 A3002 RMK A01 T00951009  RH  049%=      5-min Rain = 0
KAHS 210534Z 21010KT 09/M01 A3002 RMK A01 T00941008  RH  049%=      5-min Rain = 0
KAHS 210535Z 22010KT 09/M01 A3002 RMK A01 T00941008  RH  049%=      5-min Rain = 0
KAHS 210536Z 22011KT 09/M01 A3002 RMK A01 T00941008  RH  049%=      5-min Rain = 0
KAHS 210537Z 23010KT 09/M01 A3002 RMK A01 T00941008  RH  049%=      5-min Rain = 0
KAHS 210538Z 22009KT 09/M01 A3002 RMK A01 T00931008  RH  049%=      5-min Rain = 0
KAHS 210539Z 23011KT 09/M01 A3002 RMK A01 T00931007  RH  050%=      5-min Rain = 0
KAHS 210540Z 23010KT 09/M01 A3002 RMK A01 T00931007  RH  050%=      5-min Rain = 0
KAHS 210541Z 22010KT 09/M01 A3002 RMK A01 T00921007  RH  050%=      5-min Rain = 0
KAHS 210542Z 23010KT 09/M01 A3002 RMK A01 T00921007  RH  050%=      5-min Rain = 0
KAHS 210543Z 23009KT 09/M01 A3002 RMK A01 T00911007  RH  050%=      5-min Rain = 0
KAHS 210544Z 23011KT 09/M01 A3002 RMK A01 T00911007  RH  050%=      5-min Rain = 0
KAHS 210545Z 23011KT 09/M01 A3002 RMK A01 T00911007  RH  050%=      5-min Rain = 0
KAHS 210546Z 23011KT 09/M01 A3002 RMK A01 T00921007  RH  050%=      5-min Rain = 0
KAHS 210547Z 23010KT 09/M01 A3002 RMK A01 T00921007  RH  050%=      5-min Rain = 0
KAHS 210548Z 23011KT 09/M01 A3002 RMK A01 T00911007  RH  050%=      5-min Rain = 0
KAHS 210549Z 23010KT 09/M01 A3002 RMK A01 T00911007  RH  050%=      5-min Rain = 0
KAHS 210550Z 23011KT 09/M01 A3002 RMK A01 T00911007  RH  050%=      5-min Rain = 0
KAHS 210551Z 23012KT 09/M01 A3002 RMK A01 T00911007  RH  050%=      5-min Rain = 0
KAHS 210552Z 22010KT 09/M01 A3002 RMK A01 T00911007  RH  050%=      5-min Rain = 0
KAHS 210553Z 22010KT 09/M01 A3002 RMK A01 T00911007  RH  050%=      5-min Rain = 0
KAHS 210554Z 22010KT 09/M01 A3002 RMK A01 T00911007  RH  050%=      5-min Rain = 0
KAHS 210555Z 22010KT 09/M01 A3002 RMK A01 T00911007  RH  050%=      5-min Rain = 0
KAHS 210556Z 22010KT 09/M01 A3002 RMK A01 T00901007  RH  050%=      5-min Rain = 0
KAHS 210557Z 22010KT 09/M01 A3002 RMK A01 T00901007  RH  051%=      5-min Rain = 0
KAHS 210558Z 22010KT 09/M01 A3002 RMK A01 T00891006  RH  051%=      5-min Rain = 0
KAHS 210559Z 22010KT 09/M01 A3002 RMK A01 T00891006  RH  051%=      5-min Rain = 0

Page generated in 0.1352 seconds.